GFSWCAN_850_thetae_054.txt.gz
Theta_e
299 298 298 297 296 295 294 295 295 295 295 295 295 296 298 301 303 303 303 303 305 311 313 316 318 316 315 315 315 318 319 318 315 314 317 317 312 314 315 317 314 313 312 308 309 309 314 315 314 312 310 313 314 314
299 298 298 297 296 295 293 294 294 295 295 296 296 297 300 302 302 302 302 302 306 308 312 315 317 318 317 315 316 320 319 318 319 317 318 314 315 310 313 316 317 316 312 312 313 312 313 314 314 314 314 314 314 314
298 297 297 296 295 294 294 294 294 295 296 297 298 299 301 302 302 302 302 302 303 305 310 312 314 320 321 320 318 320 319 319 318 319 317 315 315 310 312 310 315 316 317 315 313 314 314 314 315 315 315 314 313 314
297 297 296 295 295 295 295 294 295 298 299 299 300 301 301 301 301 300 301 303 304 310 310 313 316 319 321 320 318 320 321 322 324 322 312 310 311 314 308 313 313 314 314 313 314 313 313 314 313 314 313 312 313 312
297 297 297 296 296 295 296 298 299 299 300 300 300 299 299 299 299 301 301 303 304 310 310 313 316 320 322 319 320 321 320 321 323 312 304 311 313 312 309 308 308 313 313 311 311 314 312 311 309 311 311 310 309 309
297 296 296 295 295 298 299 298 298 297 297 297 297 298 298 300 301 302 302 304 304 307 309 311 317 319 321 322 320 319 320 320 321 319 309 316 318 312 308 305 313 315 316 315 313 314 311 308 308 308 309 306 305 306
295 295 294 295 297 297 296 295 295 295 295 296 297 298 299 300 301 302 304 306 303 306 308 309 311 318 320 321 320 319 321 320 320 317 315 313 315 311 304 309 312 312 314 314 314 311 306 307 305 306 306 304 303 301
295 295 295 296 297 297 296 295 295 295 297 298 298 299 301 302 302 304 311 313 309 305 308 308 312 313 318 316 316 318 319 316 314 313 314 308 313 308 308 311 309 310 310 308 309 311 309 305 304 303 302 301 299 297
297 297 297 297 297 297 296 295 297 298 298 299 300 300 301 302 305 304 306 309 309 307 308 307 311 313 314 313 314 314 313 308 311 306 307 310 307 309 309 309 308 309 310 305 307 307 304 303 301 300 299 298 297 295
298 298 298 297 297 297 297 298 298 299 299 300 301 304 306 306 309 306 306 308 311 309 309 305 310 310 311 309 307 308 310 306 306 309 311 304 306 306 308 309 308 308 308 307 303 300 301 300 300 298 298 298 297 296
300 299 299 299 299 299 299 299 299 299 301 301 303 309 309 308 309 309 310 307 308 303 307 310 310 309 311 306 306 308 305 304 308 309 307 308 307 305 307 307 307 307 307 306 306 304 303 301 299 298 298 297 297 294
305 304 304 303 301 300 299 300 300 302 303 309 310 310 309 309 310 306 305 303 305 305 305 306 308 310 310 310 306 306 307 301 307 306 308 308 305 305 306 306 306 305 305 304 303 301 300 299 299 298 297 295 292 290
308 308 307 306 305 304 304 305 306 309 310 310 310 308 308 305 305 302 305 305 304 302 306 307 304 308 307 307 303 303 304 303 303 299 309 305 304 304 305 304 303 303 302 301 300 300 299 298 297 296 293 291 290 290
310 309 308 308 309 308 307 308 310 311 310 309 306 304 304 304 301 301 302 303 302 305 306 306 304 304 305 304 302 306 304 303 305 304 304 302 303 303 303 302 302 301 301 300 300 299 297 296 294 292 291 290 290 289
309 312 312 310 311 310 310 311 310 310 307 302 302 301 300 298 299 300 301 302 304 306 306 304 304 304 302 304 302 304 307 306 303 304 302 302 302 302 300 301 300 299 298 297 296 296 295 294 292 292 291 289 288 287
310 311 309 310 310 311 311 308 309 306 301 300 298 301 300 301 300 300 301 302 304 307 306 304 302 303 303 303 306 305 305 306 303 300 301 301 300 300 299 298 297 297 296 295 294 293 292 290 291 290 288 287 286 285
309 309 310 309 310 311 310 311 304 299 298 298 297 297 298 298 297 298 300 301 303 304 302 298 304 304 301 304 304 301 301 300 299 300 300 300 299 298 298 297 295 296 294 293 291 290 290 290 289 288 287 285 285 285
308 309 309 309 310 309 309 302 298 297 297 296 296 296 296 296 297 297 300 301 302 303 303 303 302 299 299 302 301 298 297 297 298 298 299 299 298 297 296 295 296 294 292 291 291 291 290 288 287 286 285 284 283 283
298 303 307 309 310 308 300 298 297 296 296 296 297 297 296 295 294 296 299 298 298 300 297 294 293 294 294 294 294 296 297 296 296 296 296 296 297 296 295 294 294 293 292 291 291 290 287 286 286 284 284 283 282 281
296 298 299 304 306 301 298 297 297 297 296 297 296 296 295 294 292 292 293 293 293 292 292 292 291 289 289 289 293 295 296 296 296 295 294 295 295 295 294 294 294 293 292 290 288 287 285 284 283 283 282 280 279 278
295 296 298 300 299 297 297 297 297 297 297 297 297 296 295 291 290 290 290 290 290 290 290 289 288 287 289 290 294 295 295 296 296 295 294 293 294 294 293 292 291 290 289 287 286 284 284 284 283 281 279 278 277 277
292 294 294 296 296 296 296 297 297 296 297 296 297 297 296 295 293 289 288 287 287 286 287 286 286 287 288 289 290 292 293 295 294 293 293 292 291 290 289 288 288 287 285 284 283 283 282 281 280 278 277 277 277 276
293 293 293 293 293 294 293 295 295 296 295 296 296 295 295 294 293 289 288 286 284 284 285 285 285 285 286 287 288 289 289 290 289 289 289 288 287 286 286 285 284 284 283 281 281 280 280 279 278 277 276 276 275 274
294 293 294 294 293 290 294 294 295 295 295 293 292 292 292 293 289 287 286 283 281 283 284 284 284 283 284 285 284 284 284 286 286 285 284 285 284 283 282 282 281 281 280 279 279 278 277 276 276 275 274 273 273 272
291 289 291 288 292 290 287 287 286 288 290 290 290 289 291 292 287 285 284 281 279 280 281 281 282 281 281 280 281 281 281 283 283 283 281 281 281 281 280 279 279 279 278 276 275 274 274 274 273 273 272 272 271 271
289 291 288 290 290 289 287 289 286 289 284 289 291 292 291 284 282 283 282 279 278 279 279 280 280 280 280 279 280 280 279 280 280 281 279 279 279 279 278 277 276 276 275 275 274 274 273 273 272 271 271 270 270 269
289 288 291 291 292 293 290 291 290 284 284 285 287 286 283 281 281 281 279 279 278 278 278 279 279 279 278 277 277 277 277 278 278 278 276 276 276 275 275 274 274 273 273 272 272 272 272 271 271 270 269 269 268 267
290 291 288 289 289 288 281 280 281 283 282 285 284 278 275 276 279 279 279 278 278 278 277 277 277 277 277 277 277 277 276 276 276 276 276 276 275 274 273 273 272 272 271 271 271 270 270 269 268 268 267 267 267 267
290 291 289 286 288 286 285 283 284 284 283 284 276 276 277 275 276 277 278 277 277 277 277 276 275 275 274 274 274 275 275 274 274 274 273 273 273 272 272 272 271 271 270 270 269 268 267 266 266 266 266 266 265 265
289 289 289 287 280 281 283 282 281 281 280 278 275 275 274 274 275 276 276 276 276 276 275 275 275 275 275 275 275 275 274 274 273 273 272 272 271 271 271 270 270 270 269 269 269 269 268 267 267 266 266 265 264 264
287 289 287 286 285 283 282 281 281 280 280 277 276 275 274 274 274 274 274 274 274 274 274 273 274 274 274 274 274 274 273 272 272 272 271 270 270 270 269 269 269 269 269 268 268 268 267 267 266 266 265 264 264 264
287 287 287 280 285 284 283 284 283 281 280 279 276 276 275 274 273 273 272 272 273 274 274 273 273 274 273 273 272 271 271 271 270 270 270 270 269 269 269 268 268 268 268 267 267 267 266 266 266 265 264 264 263 263
286 285 285 286 285 285 284 285 283 281 280 279 278 276 275 274 272 271 271 272 272 272 272 273 273 273 273 272 271 270 270 269 269 269 269 269 269 268 268 268 267 267 267 267 266 266 265 265 265 265 264 264 264 263

GFSWCAN_850_thetae_057.txt.gz
Theta_e
301 301 302 300 299 299 299 297 296 295 294 294 294 294 295 295 294 298 300 304 306 309 312 315 315 316 315 314 312 315 318 317 312 314 315 313 311 314 314 314 313 315 314 308 306 305 315 312 312 310 309 312 313 314
302 301 299 298 298 298 296 295 294 294 294 294 294 295 296 296 297 299 301 303 304 307 310 312 316 316 315 314 314 316 316 317 317 315 312 310 313 307 312 315 314 315 313 313 313 312 311 313 312 313 314 314 314 314
298 298 298 298 297 295 294 294 295 295 295 295 295 295 295 298 299 300 302 303 303 303 308 311 315 316 318 318 316 315 317 319 319 318 313 313 313 309 314 312 316 315 313 312 313 314 313 313 313 313 314 314 314 314
297 297 296 295 294 294 296 296 296 296 296 296 296 296 297 298 300 302 302 303 302 305 306 311 314 316 317 319 320 317 317 318 319 319 311 309 309 315 314 315 314 314 314 312 312 312 313 313 313 314 313 314 313 313
296 296 295 294 293 294 295 295 295 295 295 296 296 298 298 298 303 302 302 303 303 305 309 309 312 313 316 319 320 319 317 320 320 312 305 311 310 311 307 309 312 312 312 313 312 313 312 313 311 311 312 312 312 312
295 295 295 294 294 294 294 294 295 295 295 296 298 300 303 302 303 302 303 302 302 303 307 307 312 315 318 319 321 320 318 320 320 317 310 314 316 312 310 310 312 314 314 314 313 314 313 312 309 309 311 309 308 308
296 296 296 296 295 297 298 298 299 297 297 299 300 301 300 301 301 301 302 303 302 303 305 305 307 316 318 319 319 320 320 320 319 316 312 312 314 311 302 307 311 312 313 314 314 312 306 308 306 307 307 305 304 303
296 296 297 298 298 298 298 297 299 299 299 299 299 299 300 300 301 302 305 305 303 303 306 306 307 311 315 315 316 318 315 314 313 313 313 304 311 307 310 309 308 308 308 308 309 311 310 307 305 304 304 302 301 300
295 298 298 297 296 295 295 296 296 297 298 298 299 299 300 301 300 301 309 305 303 305 305 304 308 310 313 312 314 314 313 308 310 305 309 311 307 314 310 308 307 307 308 304 306 307 306 305 303 301 301 300 299 296
295 297 297 296 295 294 295 296 296 297 298 299 300 301 301 301 303 306 305 306 308 307 309 305 309 308 311 308 305 308 307 307 311 309 312 307 308 307 308 308 308 308 310 308 304 300 301 300 299 299 298 298 297 296
297 297 297 296 295 295 297 298 298 298 299 300 300 302 303 304 304 305 304 303 305 304 306 307 310 309 310 308 307 306 306 303 311 309 310 307 308 304 306 308 308 307 308 309 308 306 303 303 299 298 297 296 295 295
297 297 296 296 295 296 297 297 298 300 300 301 304 305 307 307 306 304 304 303 305 306 304 305 308 310 310 309 305 306 307 302 310 306 308 311 304 305 305 305 305 305 306 306 306 304 302 300 299 298 297 296 295 293
298 297 298 298 298 298 299 299 299 300 300 302 308 307 306 302 306 306 307 305 304 302 305 306 304 307 306 307 301 300 301 304 303 307 308 305 305 305 304 304 303 303 303 303 302 301 300 299 298 298 297 295 291 290
302 302 301 299 299 299 299 298 299 300 302 307 304 302 303 304 302 302 303 303 302 303 305 305 303 303 304 301 299 305 304 303 297 302 305 303 304 303 303 303 303 302 302 301 300 300 299 298 297 296 294 292 291 289
305 303 303 302 301 300 299 299 300 302 303 301 300 301 300 299 299 300 300 302 303 304 305 304 304 304 301 304 300 304 306 307 299 300 302 302 302 302 302 302 302 301 300 299 298 298 297 296 293 291 290 290 289 288
308 307 306 305 304 304 302 301 300 301 301 300 298 301 300 301 300 299 301 301 302 305 304 304 301 303 303 303 305 304 302 305 303 300 300 301 301 300 300 300 300 299 299 298 297 296 296 294 292 291 289 288 286 286
309 307 307 307 306 305 304 301 299 298 297 297 296 296 298 298 298 297 298 300 302 304 301 298 304 304 301 303 302 300 300 299 298 299 299 300 300 298 298 299 298 297 296 296 295 294 292 292 291 290 288 285 285 284
308 307 307 308 307 304 301 298 297 297 297 296 296 296 293 293 295 294 296 299 302 302 301 300 298 295 296 300 299 298 296 296 298 298 298 298 298 297 297 297 296 295 294 293 291 290 290 289 288 286 286 285 284 283
306 308 309 309 308 307 300 298 297 296 296 296 296 295 293 292 291 292 295 295 296 296 294 293 291 292 291 291 291 294 296 295 294 295 295 296 297 296 296 295 294 292 291 290 289 289 288 287 286 285 284 284 283 282
300 307 309 309 309 301 297 297 297 297 296 295 292 291 290 290 290 290 291 291 291 290 290 289 288 287 287 287 290 293 294 295 295 294 293 294 295 295 294 294 293 292 291 291 289 288 286 285 283 282 282 281 280 279
298 299 303 306 300 297 296 296 296 296 296 296 294 292 291 289 287 287 287 288 288 289 288 286 285 284 285 287 291 294 294 294 294 293 291 291 292 293 292 291 291 290 289 288 287 284 283 283 282 282 281 280 279 278
294 295 296 297 296 296 296 296 296 296 296 296 296 296 294 291 289 287 285 285 284 284 284 283 283 284 285 287 288 290 291 293 293 292 291 290 290 289 287 287 287 286 285 284 283 283 282 282 281 280 279 278 278 277
293 293 293 293 294 294 294 295 295 296 296 295 294 294 294 292 289 286 285 283 281 281 283 283 283 284 284 285 287 288 288 289 288 287 287 287 286 285 285 284 284 283 282 280 280 280 279 279 278 278 277 276 275 274
293 292 292 292 293 288 293 293 294 294 293 293 293 292 293 290 287 284 283 280 279 280 281 282 283 283 284 284 283 283 284 285 285 284 283 284 284 282 282 281 281 280 279 278 278 278 278 277 276 275 274 273 273 272
291 289 290 284 291 288 285 284 286 289 290 290 290 291 290 288 285 283 281 279 278 279 279 280 281 281 280 280 280 281 281 282 282 282 280 280 280 279 279 279 279 278 277 275 275 274 274 273 273 273 272 272 271 270
285 290 289 288 288 287 285 285 286 286 283 284 286 288 286 282 281 281 281 278 277 278 278 278 279 279 279 279 279 279 279 279 280 281 278 278 278 277 276 276 275 275 274 274 273 273 272 272 271 271 270 270 269 268
287 287 289 288 290 290 285 286 285 282 282 284 283 280 277 277 278 280 278 278 277 277 277 278 278 278 277 277 277 277 277 277 278 277 276 276 276 275 274 274 273 273 272 272 272 272 271 271 270 269 269 268 268 267
290 289 284 286 286 285 279 275 279 281 281 283 279 274 273 273 277 277 277 277 277 277 277 277 277 277 277 277 276 276 276 275 275 275 275 274 274 273 273 273 272 271 271 271 270 270 269 269 268 268 267 267 266 266
288 288 287 281 284 283 281 279 279 280 278 280 272 273 275 274 276 276 276 277 277 277 277 276 275 273 274 274 275 275 274 274 274 274 274 273 273 272 272 271 271 270 270 270 269 268 268 267 267 266 266 266 265 265
287 287 286 284 276 279 280 279 277 276 276 275 274 273 273 274 275 275 276 276 276 276 275 275 275 274 274 274 274 274 274 273 273 272 272 271 271 270 270 270 270 269 269 269 268 268 268 267 267 267 267 266 265 265
287 287 285 285 282 279 279 279 277 276 275 274 274 273 272 272 273 273 273 273 274 274 273 273 274 274 274 274 274 273 272 272 271 271 270 270 269 269 269 269 268 268 268 268 268 267 267 267 267 266 266 265 265 264
286 285 284 277 282 281 282 281 279 278 277 276 275 274 274 273 272 272 271 271 272 273 273 273 273 274 274 273 272 271 271 270 270 270 269 269 269 268 268 268 268 268 267 267 267 266 266 265 265 265 265 265 264 264
285 285 285 284 282 281 282 283 281 279 278 278 276 275 274 273 271 271 271 271 272 272 273 273 273 272 272 271 271 270 270 269 269 269 269 268 268 268 268 267 267 267 267 266 266 266 266 265 265 265 265 264 264 264

GFSWCAN_850_thetae_060.txt.gz
Theta_e
300 300 300 300 301 300 300 302 301 300 300 299 298 298 298 298 298 298 298 299 301 304 308 311 312 311 312 311 309 311 316 314 309 311 311 310 308 314 314 316 316 317 315 310 306 308 317 310 310 311 310 310 311 312
301 302 303 301 299 303 301 300 299 300 300 299 298 297 297 298 297 296 298 300 302 305 308 311 313 313 311 311 311 315 312 314 315 314 310 307 310 307 313 316 313 317 315 315 314 314 312 312 311 312 311 312 312 313
301 300 300 299 300 300 299 300 299 299 298 298 297 296 296 297 296 295 298 299 303 305 306 309 313 314 314 314 313 313 315 318 317 318 312 311 313 310 313 313 316 313 311 312 313 313 312 314 313 313 312 313 314 314
298 298 299 299 299 299 299 298 298 298 297 297 296 296 295 296 296 294 296 300 304 305 306 309 313 315 316 316 315 314 314 315 318 318 309 309 311 312 310 315 314 314 313 312 312 312 312 313 313 312 313 313 314 314
297 297 297 297 297 296 296 296 295 295 295 295 295 295 294 295 296 296 297 298 302 306 307 307 311 313 314 315 317 318 315 316 317 311 305 310 310 310 306 309 305 312 313 314 316 314 314 313 313 312 313 313 313 313
295 294 294 294 294 294 295 295 295 295 294 295 295 294 295 296 296 297 298 301 301 302 304 305 309 312 315 314 316 316 319 318 318 315 308 313 315 312 309 309 311 316 315 316 314 314 313 313 312 312 313 312 312 312
294 294 294 295 296 295 296 296 296 296 296 296 296 296 297 298 297 299 302 302 302 302 303 304 305 313 316 317 318 317 318 318 318 316 312 312 313 310 301 308 310 311 312 313 313 313 308 308 309 309 311 309 309 308
295 295 295 295 294 294 294 295 295 296 296 296 297 298 299 299 299 303 303 302 302 302 303 305 306 308 315 315 315 315 315 316 314 312 311 305 310 306 312 308 308 308 308 308 308 310 311 309 307 307 307 306 305 303
298 298 297 297 297 298 295 295 295 296 297 298 300 300 300 300 301 303 305 303 302 303 302 303 307 306 312 311 310 311 311 308 311 305 307 310 305 313 310 308 307 307 308 305 305 306 305 308 304 303 303 302 303 299
297 297 298 299 299 299 297 295 296 298 299 300 301 300 300 302 305 303 304 303 304 305 306 304 307 307 310 308 307 306 307 307 311 308 310 307 308 309 309 310 310 308 307 307 308 302 304 302 302 301 301 301 302 300
295 295 295 297 298 299 299 299 299 300 300 301 301 303 302 303 304 303 303 304 305 304 306 306 308 307 310 307 305 306 307 305 312 310 310 308 308 306 308 309 311 313 310 306 307 306 306 309 303 299 298 298 297 296
296 295 295 297 298 299 299 299 300 301 300 301 303 302 301 301 303 302 304 302 305 307 304 304 307 310 308 309 305 304 305 304 312 305 309 310 305 304 305 305 306 306 305 306 306 304 302 302 301 300 298 297 296 294
296 296 295 297 298 299 299 300 300 301 304 303 303 305 305 302 303 298 305 305 305 302 304 306 304 307 307 306 301 301 305 306 303 308 310 306 304 303 303 303 303 303 304 303 302 302 302 302 300 299 296 294 294 293
296 296 295 296 297 298 299 299 299 302 301 301 301 302 303 303 302 302 303 302 302 303 305 305 302 303 304 302 300 307 303 303 306 307 306 303 303 302 302 303 303 302 302 303 302 302 301 299 297 295 295 295 292 290
297 297 297 297 297 298 298 298 298 298 299 299 300 301 300 298 299 299 300 301 301 303 305 303 303 304 302 303 301 304 306 306 301 299 302 301 300 301 301 302 302 302 302 301 299 298 297 297 296 295 292 291 291 290
301 300 299 299 298 298 297 297 298 299 298 298 297 300 299 300 299 298 299 299 302 304 303 304 302 304 304 303 305 303 304 304 302 299 299 300 300 300 300 301 300 299 299 297 297 296 296 295 294 292 290 288 287 286
301 301 300 299 299 299 299 298 298 297 297 297 296 293 296 296 296 295 295 296 301 303 300 300 304 303 301 302 301 300 299 298 297 297 298 300 301 299 299 298 297 296 296 296 296 295 294 293 291 289 288 285 284 284
305 303 302 301 300 299 299 298 297 297 296 296 295 293 291 290 291 292 293 297 301 300 297 297 295 295 295 298 297 296 295 295 296 296 296 296 297 296 297 296 296 295 295 294 294 292 291 290 289 287 286 285 284 283
305 304 304 303 302 300 298 298 297 296 295 294 292 292 291 290 289 290 293 293 293 293 292 290 287 288 288 289 289 289 294 294 293 293 293 294 294 295 295 295 294 293 293 292 291 290 289 288 287 286 284 283 283 282
304 304 303 302 300 299 297 297 297 296 296 291 289 288 288 287 287 287 288 289 290 288 288 287 286 285 285 285 286 290 293 293 293 292 291 292 293 294 293 293 291 290 289 288 287 286 286 286 284 283 283 282 282 281
301 300 300 301 297 297 296 296 296 296 295 293 291 290 289 287 285 285 285 286 285 286 285 283 283 282 283 285 287 291 293 294 292 290 288 288 289 290 290 289 289 288 287 286 285 283 283 283 282 282 281 281 280 279
296 297 296 297 296 295 295 296 295 295 296 295 295 293 291 289 287 285 283 282 282 282 282 281 281 281 282 284 285 287 288 290 290 289 288 288 287 287 286 285 286 285 284 283 283 282 281 280 280 279 279 279 278 278
293 293 293 294 294 295 294 295 295 295 295 294 293 293 290 288 286 284 282 281 279 279 280 281 281 282 282 283 286 286 287 287 286 285 285 285 284 284 284 283 282 282 281 280 279 279 279 279 278 278 278 277 275 274
293 291 292 291 292 286 293 292 293 293 292 293 293 292 290 287 285 283 281 279 278 279 280 280 281 282 283 284 283 282 282 283 283 282 282 283 282 281 281 280 280 279 279 278 278 277 276 276 275 274 273 273 272 272
291 289 290 284 291 286 284 286 288 288 291 290 291 290 287 285 284 282 280 278 277 277 278 279 280 280 279 279 279 280 281 282 282 281 279 279 279 279 279 278 277 276 275 274 275 274 274 273 273 273 272 272 271 271
287 288 286 284 286 284 284 283 283 285 284 286 286 283 282 279 279 280 280 277 276 277 277 278 278 279 278 278 278 278 278 279 280 279 276 276 276 276 275 275 274 274 273 273 273 272 272 272 271 271 270 270 269 268
285 284 286 285 286 286 280 283 282 278 278 281 280 274 275 276 277 279 277 276 276 276 277 277 278 278 277 276 276 276 276 277 277 276 275 275 275 274 274 274 273 272 272 271 271 271 270 270 270 269 269 268 268 267
286 286 279 283 283 282 275 274 276 278 278 279 276 270 270 271 276 276 276 276 276 276 276 276 277 276 276 275 275 275 275 275 274 274 274 274 273 273 272 272 271 271 270 270 270 269 269 269 269 268 268 267 267 266
285 285 285 277 280 280 278 276 276 275 275 277 270 270 273 272 274 275 275 276 276 276 275 274 273 274 275 274 274 274 274 273 273 273 273 272 272 271 271 270 270 270 270 269 269 269 268 268 267 267 267 266 266 266
285 285 283 280 273 274 276 274 273 274 274 274 273 272 272 273 274 275 275 275 275 275 275 274 274 273 274 274 273 273 273 273 272 272 271 271 271 270 270 270 269 269 269 268 268 268 267 267 267 267 266 266 266 265
286 284 283 281 278 276 275 274 274 274 274 273 273 272 271 272 272 272 273 273 273 273 273 273 274 273 274 274 273 272 272 271 271 271 270 270 270 269 269 269 268 268 268 268 267 267 267 267 266 266 266 265 265 265
284 283 282 275 279 277 279 279 277 276 276 275 274 274 273 273 271 271 271 271 271 272 272 273 272 273 273 272 272 271 271 270 270 270 269 269 269 268 268 268 268 267 267 267 267 266 266 266 266 265 265 265 264 264
283 283 283 282 280 278 279 280 279 277 277 276 275 274 273 272 271 271 271 271 272 272 273 273 273 272 272 271 271 270 270 270 269 269 269 268 268 268 267 267 267 267 267 266 266 266 266 265 265 265 265 264 264 264

GFSWCAN_850_thetae_063.txt.gz
Theta_e
300 300 300 300 300 300 300 301 301 301 301 303 301 300 300 299 298 299 298 300 303 304 306 308 309 309 309 309 309 309 312 312 310 311 312 313 313 315 317 317 317 319 318 317 312 316 320 311 309 316 316 311 311 311
301 302 300 300 300 300 300 301 301 301 301 301 300 300 300 299 300 299 299 300 300 302 306 307 310 309 309 309 309 311 312 312 311 313 311 310 313 310 317 318 314 320 318 319 317 320 315 310 313 312 312 312 311 311
302 302 300 301 301 301 301 301 301 301 301 300 300 300 299 298 298 299 299 300 301 301 304 305 309 310 310 309 309 313 312 314 314 315 312 313 314 311 315 315 315 314 312 316 316 315 313 313 311 312 312 312 312 312
300 300 300 300 300 300 301 302 302 300 300 300 300 299 299 300 300 298 298 298 299 302 304 306 310 313 311 310 310 310 312 314 317 316 310 308 314 312 313 316 317 315 314 315 315 314 313 314 315 314 313 312 312 312
298 299 299 300 300 300 300 300 300 300 299 299 298 298 299 299 299 297 297 296 298 302 304 305 309 312 313 313 312 311 312 315 316 313 307 314 311 312 308 311 313 314 315 317 318 316 316 317 317 316 314 312 312 313
297 298 299 299 299 299 299 299 299 299 299 299 299 298 298 298 298 295 296 296 298 298 301 305 307 311 314 315 315 314 313 314 315 315 310 312 313 313 313 317 314 315 314 315 315 314 314 314 314 314 312 312 312 312
296 295 296 296 297 298 298 298 298 298 298 298 297 296 296 296 295 296 299 299 297 298 300 303 306 312 314 314 315 315 315 316 316 315 310 312 312 311 307 315 312 311 312 313 313 313 311 311 310 310 311 310 310 310
294 295 295 295 295 295 295 295 295 295 295 295 295 296 296 295 296 299 302 301 300 300 301 303 306 310 313 313 312 314 315 315 315 313 309 311 309 306 313 310 309 309 310 310 310 310 311 310 308 308 308 309 308 307
296 294 295 296 295 295 295 295 294 294 294 295 295 295 296 296 297 298 302 302 301 302 301 301 307 311 311 309 310 311 311 308 310 307 309 312 309 316 314 309 308 308 309 307 306 306 308 308 306 305 305 303 305 301
297 297 295 295 296 296 296 296 297 296 295 296 296 297 298 298 300 302 301 301 302 303 304 303 304 308 309 304 305 305 306 306 310 309 310 310 312 309 311 312 311 310 311 311 308 302 301 303 304 304 304 302 302 299
298 298 298 296 294 295 295 296 296 297 297 298 300 301 300 301 303 302 301 302 303 304 304 304 304 307 309 306 306 304 305 303 310 310 313 311 311 307 309 309 309 308 308 307 308 308 308 303 300 298 299 300 301 299
297 299 298 296 295 295 295 296 298 299 299 301 302 301 302 301 302 303 304 303 305 306 304 304 306 307 307 309 305 304 305 303 310 305 310 312 306 303 305 306 306 305 304 307 309 308 305 304 301 300 298 298 298 298
297 298 299 298 298 298 298 299 301 302 301 301 302 302 303 301 303 304 305 306 305 302 304 305 305 307 306 305 302 303 306 307 302 308 311 306 303 302 302 303 302 303 304 304 302 302 302 300 298 298 297 297 296 295
296 297 298 299 300 300 300 299 302 302 302 301 300 303 303 304 303 303 303 303 301 303 305 306 302 304 304 303 302 307 305 303 308 310 305 303 301 301 301 301 301 300 301 301 300 300 299 299 297 297 296 295 294 293
296 297 298 298 300 299 299 299 302 300 300 298 300 301 300 298 299 299 300 300 301 304 305 303 303 304 302 303 303 305 306 306 304 304 302 299 299 300 300 300 300 300 300 300 299 299 297 296 295 294 293 293 291 290
297 297 297 297 298 299 299 298 300 298 298 297 294 297 297 298 297 296 297 298 301 303 303 303 302 304 304 304 304 303 305 304 302 299 298 298 298 299 299 299 299 299 299 297 296 296 295 294 294 292 290 289 290 290
298 298 298 297 297 297 297 297 298 297 296 296 294 291 293 293 292 292 293 294 299 300 301 301 302 301 300 300 299 299 299 297 296 295 296 296 296 296 296 296 296 295 295 294 294 293 293 292 291 290 289 285 285 284
301 299 299 299 298 298 298 298 297 296 295 293 292 291 289 288 289 290 291 293 299 297 295 294 294 293 292 295 294 292 293 293 293 293 293 293 294 294 294 294 293 293 293 292 292 291 290 289 288 287 285 283 283 282
300 299 298 298 299 299 298 297 296 294 291 290 289 289 288 287 287 288 290 291 291 291 290 288 288 288 288 287 287 287 289 292 289 289 290 291 291 292 292 293 293 292 292 291 290 289 288 287 286 285 284 283 282 282
300 300 299 298 299 298 297 296 296 293 291 289 288 286 286 285 285 285 286 286 287 286 285 285 284 283 283 283 284 286 291 290 289 288 286 288 290 292 291 291 290 289 289 288 287 286 285 284 283 283 282 282 282 281
299 299 299 299 297 296 295 295 295 294 292 290 289 289 288 285 284 283 283 283 283 284 283 281 281 281 282 283 284 287 290 291 288 286 284 285 286 288 287 287 287 286 286 285 284 283 283 282 281 281 280 280 280 279
299 299 297 297 296 295 295 295 295 295 295 293 293 290 289 287 285 283 282 281 280 280 281 280 280 280 280 282 283 285 286 288 287 287 286 286 286 285 285 284 285 284 283 282 282 281 280 280 279 279 279 278 278 277
293 293 293 293 294 295 294 294 294 294 294 293 292 290 288 286 284 282 281 280 278 278 279 279 279 280 280 281 283 284 285 286 285 284 284 284 283 282 282 282 281 281 281 279 279 279 279 278 277 276 275 274 274 273
292 291 291 291 291 287 292 291 292 292 292 292 292 290 288 286 283 281 280 278 277 277 279 279 280 280 282 283 282 281 281 283 282 282 281 282 281 280 280 279 279 278 276 275 275 275 274 274 274 273 273 273 272 272
290 287 289 284 289 284 281 284 286 288 290 290 289 287 285 284 282 281 280 278 276 277 278 279 279 279 278 278 279 279 280 281 281 280 277 277 277 276 276 275 275 274 273 274 274 273 273 272 272 272 271 271 270 270
284 285 284 282 284 283 283 283 282 283 282 284 283 280 281 280 280 280 279 277 276 276 277 277 278 278 278 278 278 278 277 277 277 278 275 275 275 275 275 274 274 273 273 272 272 271 271 271 270 270 269 269 268 268
283 282 284 282 284 283 278 280 280 277 278 279 277 272 274 274 276 278 276 276 276 276 276 277 277 277 276 275 275 275 275 275 276 275 274 274 274 273 273 272 272 271 271 271 270 270 270 269 269 269 268 268 267 267
284 284 277 280 280 279 272 273 274 276 276 277 274 270 269 270 275 275 275 275 276 276 276 276 276 276 275 275 274 274 274 274 274 273 273 273 272 272 271 271 270 270 270 269 269 269 269 268 268 268 268 267 267 267
283 282 282 274 277 275 273 272 271 273 274 275 269 270 272 271 273 273 274 275 275 275 275 275 275 274 274 274 274 274 273 273 272 272 272 271 271 271 270 270 270 269 269 269 268 268 268 268 267 267 267 267 266 266
283 282 280 275 270 271 272 272 272 273 273 273 272 271 271 272 273 274 274 274 274 275 274 274 273 273 273 273 273 273 272 272 271 271 271 271 270 270 269 269 269 269 269 268 268 268 267 267 267 267 266 266 266 265
284 283 279 277 275 274 274 273 273 273 273 273 273 271 271 271 272 272 273 273 273 273 273 273 273 273 273 272 272 272 271 271 271 271 270 270 269 269 269 268 268 268 268 268 268 267 267 267 266 266 266 265 265 265
283 281 279 273 276 275 276 277 276 275 275 274 273 273 273 272 271 271 271 272 272 272 272 272 272 273 272 271 271 271 270 270 270 270 269 269 269 268 268 268 268 268 267 267 267 267 267 266 266 266 265 265 265 265
282 281 280 279 276 275 277 277 277 276 276 275 274 273 273 272 271 271 271 271 272 272 272 272 272 272 271 271 270 270 270 270 269 269 269 268 268 268 267 267 267 267 267 267 266 266 266 266 266 265 265 265 265 264

GFSWCAN_850_thetae_066.txt.gz
Theta_e
302 301 301 300 300 301 300 300 300 301 301 300 302 302 301 302 300 300 300 301 303 304 305 305 307 307 306 309 313 310 313 315 316 317 317 318 320 317 318 320 321 322 323 324 321 328 327 315 313 319 322 319 318 317
300 300 300 300 301 302 303 301 301 301 300 300 300 301 301 301 300 300 300 300 301 303 305 305 306 308 307 308 310 312 311 313 315 316 317 317 321 320 317 318 318 320 321 324 322 323 321 315 319 317 317 319 316 317
300 300 301 300 301 300 300 301 301 300 301 300 301 302 301 300 300 299 300 300 301 302 303 305 306 307 308 309 309 312 311 311 313 315 317 319 323 319 323 319 318 317 316 321 320 320 319 318 316 315 315 315 315 314
300 301 301 300 301 301 301 300 300 301 301 302 302 301 300 300 300 299 299 300 301 302 303 305 306 307 309 309 309 309 310 314 315 315 318 317 321 316 322 320 320 319 317 319 320 320 317 317 317 318 315 313 313 312
300 300 301 300 301 301 301 302 301 301 301 302 300 300 300 300 299 299 299 299 300 302 304 304 305 305 308 309 310 310 314 315 317 318 311 318 318 319 317 317 321 317 319 321 323 321 320 320 318 318 316 315 313 312
299 300 300 301 301 301 301 301 301 302 301 300 300 299 299 299 299 299 299 299 300 301 301 305 305 305 310 310 311 310 311 315 315 316 318 317 317 319 322 321 318 318 317 318 319 315 316 316 316 316 315 313 312 311
298 299 299 300 300 300 301 301 300 300 300 300 299 299 298 298 299 300 299 299 298 298 300 302 303 307 311 312 312 312 311 313 314 315 318 317 318 316 318 321 318 317 316 315 313 313 314 313 313 312 311 310 309 307
295 298 299 299 299 299 299 299 299 299 299 299 298 298 298 298 299 299 300 299 297 298 300 302 304 308 312 313 312 314 314 314 315 316 314 318 316 316 321 318 316 315 312 311 311 312 311 311 310 308 307 307 305 302
295 295 296 297 298 298 299 298 298 298 298 298 298 297 296 298 298 299 300 298 299 300 302 301 307 310 311 309 311 311 313 313 312 315 316 318 317 320 317 317 316 313 312 312 307 307 307 307 305 303 303 303 302 300
296 295 295 295 296 296 296 297 297 297 296 296 296 296 297 298 298 300 301 302 302 303 302 304 303 306 309 309 309 311 311 312 312 311 314 316 318 316 315 314 314 311 309 308 307 306 304 303 302 301 302 301 300 299
296 296 296 295 295 295 295 295 295 295 296 297 297 298 298 298 299 301 299 303 302 303 304 302 303 310 308 311 309 307 310 309 314 313 314 316 319 315 309 309 309 308 306 306 307 307 305 304 302 299 298 297 296 296
295 296 296 296 296 295 294 295 295 296 296 296 299 299 297 300 300 303 304 302 304 307 305 306 307 308 308 310 309 307 309 307 313 306 309 312 307 305 305 305 304 304 305 307 307 305 304 302 301 301 299 297 295 295
295 295 295 295 296 297 297 296 295 296 299 301 301 300 300 301 305 309 306 307 309 306 306 306 307 308 308 308 305 307 309 313 304 310 310 306 303 302 301 301 302 303 304 302 299 301 300 298 298 299 298 296 294 294
295 296 296 296 297 298 298 298 300 301 301 301 302 302 304 306 306 306 307 308 303 304 305 306 305 310 306 307 307 311 306 308 313 313 307 303 299 299 299 299 300 298 299 297 296 298 297 297 296 295 295 294 294 293
299 299 299 299 299 299 301 300 300 302 300 298 300 303 303 299 298 299 300 301 301 304 306 306 306 306 306 307 306 308 311 309 307 307 303 298 297 297 297 296 297 296 296 295 295 296 295 294 294 293 293 293 293 291
298 298 299 300 300 300 299 299 300 299 298 296 293 297 294 297 295 295 296 298 300 303 305 305 303 306 306 307 307 307 308 306 302 299 297 296 295 295 295 296 295 295 295 294 293 293 293 293 293 292 291 291 290 289
297 298 298 298 299 299 299 298 299 296 295 295 293 290 291 291 291 291 291 292 298 301 303 304 305 303 304 303 301 299 299 298 296 294 294 294 293 293 294 293 292 292 291 291 291 292 291 290 289 289 287 284 284 283
298 297 297 297 297 297 298 298 296 295 293 291 292 290 288 287 287 287 289 292 296 296 296 295 294 295 296 298 296 293 292 291 291 291 291 291 291 291 290 289 288 289 290 290 290 289 289 288 288 284 285 284 283 282
298 298 298 298 299 299 297 296 295 292 290 289 288 287 287 286 285 285 287 289 290 291 290 289 289 289 289 288 289 289 291 291 289 287 287 288 288 288 288 289 289 289 289 288 288 286 285 284 283 282 282 283 283 281
298 299 298 298 299 298 296 296 294 293 292 289 288 286 286 285 284 284 284 286 287 286 286 286 285 284 284 284 285 287 290 288 288 287 285 286 287 288 288 288 287 287 287 286 285 284 283 282 282 281 281 280 280 279
298 297 298 299 296 296 295 295 295 293 292 291 290 289 289 287 285 283 283 284 283 284 284 282 282 281 281 282 284 287 288 287 285 285 284 283 284 285 285 285 285 284 283 281 281 280 281 279 279 280 280 280 279 278
298 299 298 297 296 295 295 295 295 295 295 293 293 290 289 287 286 284 282 282 280 280 281 280 280 280 280 280 281 283 284 286 285 284 283 283 283 282 281 281 282 280 279 278 279 280 279 279 278 278 277 276 275 274
294 294 293 293 295 295 294 294 295 294 296 295 292 290 288 287 284 283 282 280 279 278 279 279 278 278 278 279 281 282 282 284 283 283 283 282 281 281 280 279 278 279 279 278 278 277 276 275 275 275 274 274 273 273
292 291 291 290 291 291 291 292 292 293 293 293 291 289 288 286 284 282 281 279 278 277 278 278 279 278 279 281 280 279 280 282 281 281 280 281 280 278 278 277 277 276 275 275 275 274 274 273 273 273 272 272 271 271
290 286 288 288 288 289 290 289 288 291 291 291 289 288 286 285 284 283 281 279 277 276 276 277 277 277 277 276 278 278 279 280 280 278 276 276 276 276 276 275 275 274 273 273 273 272 272 272 271 271 270 270 269 269
286 283 286 286 286 287 287 287 286 286 287 286 284 283 283 283 282 282 280 278 276 275 276 276 276 277 276 276 276 276 275 276 276 276 275 275 275 274 274 273 273 272 272 272 271 271 270 270 270 269 269 269 269 268
285 285 283 281 283 283 283 282 282 283 282 283 282 281 281 281 280 279 277 275 275 275 276 276 277 276 275 275 275 274 275 275 276 275 274 274 273 273 272 272 272 271 271 270 270 270 270 269 269 269 268 268 268 267
284 283 282 279 279 278 279 279 279 279 279 278 278 277 278 278 278 276 274 275 275 276 276 276 276 275 275 274 274 274 274 274 273 273 272 272 272 272 271 271 271 270 270 270 270 269 269 269 268 268 268 268 267 267
282 280 280 275 276 275 275 276 276 275 274 276 277 276 274 272 271 273 273 275 275 275 275 275 274 274 274 274 274 274 273 272 272 272 272 271 271 270 270 270 270 269 269 269 269 268 268 268 268 268 267 267 267 266
281 280 278 274 274 276 274 273 273 271 272 273 273 272 272 270 272 273 274 274 274 274 274 273 273 273 273 273 273 272 272 272 271 271 271 271 270 270 269 269 269 269 268 268 268 268 268 268 267 267 267 266 266 266
281 280 278 277 276 274 273 273 273 273 272 272 272 272 271 271 272 273 273 273 273 274 273 273 273 273 273 272 272 271 271 271 271 271 270 270 269 269 269 268 268 268 268 268 268 267 267 267 267 267 267 266 266 265
280 279 278 278 276 274 275 275 275 275 274 275 273 273 272 272 272 272 272 272 272 272 272 272 273 273 272 271 271 271 271 270 270 270 269 269 268 268 268 268 268 268 268 268 267 267 267 267 267 266 266 266 266 265
279 279 278 277 277 276 275 276 276 275 275 275 273 272 272 273 272 271 272 272 272 272 272 272 272 272 271 270 270 270 270 270 269 269 268 268 268 268 267 267 268 268 267 267 267 267 267 267 266 266 266 266 265 265

GFSWCAN_850_thetae_069.txt.gz
Theta_e
300 301 301 301 300 301 301 300 300 300 300 300 301 301 300 300 300 300 302 302 304 305 305 305 306 306 307 307 311 309 313 315 317 317 316 316 320 316 314 316 322 323 324 327 326 329 327 320 318 321 323 321 321 321
300 301 301 300 301 301 301 301 300 300 300 300 301 301 300 300 301 300 302 302 303 305 305 306 306 307 307 306 307 308 312 313 314 315 317 317 322 322 316 318 316 321 323 324 323 324 323 319 320 319 320 322 322 321
300 301 301 302 301 302 303 302 300 300 300 300 301 300 300 301 302 300 303 303 303 304 305 306 307 308 309 308 307 312 312 312 312 312 315 317 319 318 322 319 316 317 317 320 322 321 322 320 319 319 320 320 320 320
300 301 301 301 301 301 301 301 300 301 301 301 301 300 302 301 299 301 303 303 303 304 305 305 305 307 307 306 308 310 311 311 311 313 317 319 320 316 321 316 318 316 317 318 318 318 318 320 320 320 320 319 318 318
300 300 301 301 301 301 300 300 300 301 301 300 301 301 302 299 300 301 302 302 302 303 306 304 306 306 307 306 308 309 311 312 314 317 319 318 314 314 318 319 319 316 318 321 321 318 320 319 320 320 321 321 319 317
300 301 301 301 300 300 301 301 301 301 300 301 302 302 299 300 301 301 301 301 303 304 304 306 305 306 307 307 308 309 311 312 313 314 317 313 310 314 325 319 315 313 315 317 319 318 318 318 316 315 316 319 319 317
299 301 301 301 302 301 301 301 301 301 301 302 302 299 299 300 300 301 302 301 302 303 303 305 306 307 307 306 305 310 311 313 314 315 317 317 315 317 321 321 315 315 316 318 317 316 317 317 317 313 313 314 314 313
299 300 301 301 301 301 301 301 301 302 301 300 299 299 299 300 300 299 300 300 301 302 302 304 305 304 307 305 310 311 311 312 313 314 316 318 318 319 319 316 315 315 317 317 316 314 314 313 311 310 309 309 310 309
299 299 300 300 300 301 300 300 300 299 299 299 299 299 299 300 301 300 299 300 301 302 304 303 306 307 306 312 311 311 311 314 313 316 317 316 318 319 315 315 315 317 317 317 314 312 312 312 311 309 308 308 307 306
298 299 298 299 299 300 299 299 299 299 299 299 299 300 300 301 299 299 301 302 302 302 303 304 304 305 303 309 311 312 313 315 314 315 314 316 318 315 315 317 317 317 316 313 313 313 310 310 309 308 308 307 305 304
296 297 298 298 298 298 299 299 299 299 299 299 300 300 299 300 301 301 302 303 303 304 304 305 304 303 302 309 309 310 312 313 317 315 316 317 318 314 312 314 313 313 312 311 310 310 309 309 307 305 303 302 301 299
295 295 296 297 297 297 297 297 298 299 298 299 300 299 299 300 300 303 304 303 304 305 306 306 302 301 303 311 311 311 312 312 317 308 311 314 306 303 306 308 308 308 307 306 304 304 303 302 301 299 298 298 297 296
296 295 295 295 296 296 296 297 298 299 299 300 300 300 300 300 304 306 306 307 308 307 306 304 303 305 309 309 309 310 315 313 308 311 312 307 301 300 300 300 300 299 300 302 301 301 300 298 298 297 295 294 294 293
296 296 296 295 295 295 296 299 300 301 302 303 302 304 305 307 307 306 307 308 303 306 308 307 307 309 308 309 309 310 308 311 315 315 311 304 298 296 297 296 297 295 297 297 296 297 296 294 292 292 291 291 291 290
296 296 297 298 298 297 298 300 301 300 300 299 301 302 301 299 298 298 300 301 301 306 308 309 309 308 306 310 309 310 311 311 308 308 303 297 296 294 293 293 293 293 293 293 293 292 291 290 290 290 290 291 291 291
299 298 298 298 298 298 299 300 301 301 298 296 294 298 296 299 296 295 296 297 298 303 308 306 307 307 307 308 310 307 311 307 302 299 296 294 293 292 292 292 291 291 290 291 290 290 290 290 290 289 290 290 290 289
299 298 297 298 298 299 299 300 298 296 295 295 295 292 293 294 292 291 291 291 296 301 304 306 307 302 305 305 302 300 299 299 297 295 294 292 291 291 291 290 290 290 289 289 288 288 287 287 288 288 287 285 286 284
297 297 297 297 297 298 300 297 296 295 294 292 293 291 289 288 288 287 288 290 295 297 298 297 297 299 299 301 298 296 294 293 292 292 292 291 291 290 289 289 288 288 287 287 287 286 286 285 285 284 283 282 282 281
298 298 298 300 300 300 297 295 294 292 291 290 289 288 288 287 286 286 287 289 289 290 291 291 291 291 291 290 291 291 293 291 289 288 288 288 288 288 287 287 287 286 286 285 285 284 284 284 284 284 283 283 282 281
298 298 299 300 300 298 296 295 293 293 292 290 289 287 286 286 285 285 285 286 286 286 286 287 286 285 285 285 286 290 289 288 288 288 287 286 286 285 285 285 284 284 283 283 282 282 281 280 280 280 280 280 279 278
299 298 298 299 297 295 295 295 294 293 292 292 290 290 289 287 285 284 284 283 284 284 285 283 283 282 282 283 285 287 288 288 287 286 285 284 283 283 283 283 282 282 282 281 280 279 279 278 277 277 277 277 276 275
298 298 298 296 296 296 296 295 295 295 295 293 293 291 290 288 286 285 283 282 281 282 281 281 281 281 280 280 281 282 283 284 282 282 282 282 281 281 280 280 280 279 279 278 277 277 276 276 275 275 275 274 274 274
294 293 293 294 296 296 295 296 296 296 298 295 292 292 290 289 286 285 284 282 281 280 281 279 279 279 279 279 280 280 281 281 280 280 280 279 279 279 278 278 278 277 276 275 275 275 274 274 274 273 273 273 272 272
292 291 291 292 293 294 294 293 294 294 294 293 292 291 289 288 286 285 284 281 279 279 279 280 280 279 278 278 277 277 278 278 278 278 278 279 278 276 275 275 274 274 274 273 273 273 272 272 272 271 271 271 271 270
290 287 290 291 290 293 293 293 292 293 291 291 290 289 288 287 287 285 284 281 279 278 278 277 278 278 277 276 276 277 277 277 277 276 276 276 275 275 274 274 273 272 273 272 272 271 271 271 271 271 271 270 269 269
288 285 288 288 289 290 290 291 290 290 290 289 287 286 287 287 285 284 282 279 278 277 277 277 276 275 275 275 275 275 274 275 276 276 274 274 275 275 275 274 272 272 271 271 271 270 270 270 270 269 269 268 269 268
288 288 285 284 286 287 288 286 286 287 286 286 286 285 286 285 283 281 278 277 276 275 275 275 275 275 274 275 275 275 275 275 275 274 274 273 274 273 273 272 272 271 271 271 271 270 269 269 268 268 268 267 267 268
285 284 284 282 281 282 283 283 283 283 283 281 283 282 282 282 281 278 276 274 274 275 276 276 275 275 274 274 274 274 274 273 273 273 273 273 272 272 272 272 271 271 271 270 270 269 269 269 268 268 268 267 268 267
285 283 281 278 280 279 278 280 280 278 276 280 282 280 277 275 276 275 274 274 274 274 274 275 274 274 274 274 274 273 272 272 272 272 272 272 270 271 271 270 270 270 269 268 269 269 269 269 269 268 268 268 267 266
283 283 280 278 279 279 276 276 276 276 276 276 275 274 274 273 272 273 274 274 274 273 273 273 273 273 272 272 272 272 272 272 272 272 272 270 269 270 269 269 269 269 269 269 269 268 268 268 268 267 267 267 267 266
284 283 281 280 279 277 276 276 276 275 276 276 276 276 275 273 272 273 273 273 274 274 273 273 273 272 272 272 272 271 271 271 271 271 270 270 270 269 269 269 269 269 269 269 268 268 268 268 267 267 267 267 266 266
283 283 281 280 279 277 276 279 279 278 278 278 276 275 275 276 276 272 273 273 272 272 273 272 272 273 272 272 271 271 271 271 270 270 270 269 269 269 269 269 269 268 268 268 268 268 268 267 267 267 266 266 266 266
283 282 281 281 279 280 279 280 280 279 279 279 277 276 276 277 276 272 273 273 272 271 271 272 273 273 272 271 271 270 270 270 270 269 269 269 268 268 268 268 268 268 268 268 268 268 267 267 267 266 266 266 266 266

GFSWCAN_850_thetae_072.txt.gz
Theta_e
298 299 300 300 301 301 301 301 301 302 302 301 301 299 299 301 300 302 303 303 304 305 306 306 306 307 308 308 311 309 310 310 315 315 316 318 318 316 314 318 321 322 322 324 323 324 325 321 320 320 321 321 321 321
299 300 301 301 301 302 302 301 301 301 301 301 301 300 299 300 301 301 301 302 304 305 306 307 306 307 307 308 308 309 309 311 313 316 316 316 321 321 317 317 316 316 320 324 323 324 324 322 320 320 320 321 322 322
300 301 301 302 302 301 301 301 301 301 300 301 300 300 300 300 300 300 300 303 304 305 304 306 307 307 308 309 309 310 309 309 313 313 316 318 318 317 320 319 317 317 318 317 316 320 322 322 321 320 320 320 321 321
300 301 301 301 301 301 302 301 300 301 300 300 301 300 301 301 300 300 301 303 304 302 306 306 305 307 308 309 310 310 310 310 311 313 317 318 319 316 319 317 317 318 317 317 317 317 317 316 318 320 320 320 320 320
300 301 301 301 301 300 302 301 301 300 300 300 301 301 301 301 301 300 302 303 303 305 306 307 305 305 307 307 309 310 310 311 312 312 319 318 316 318 321 320 320 315 316 320 324 318 319 320 318 319 320 320 322 320
301 301 301 301 301 300 300 300 300 300 300 300 301 301 301 301 301 301 303 303 303 303 306 307 305 307 307 307 308 308 308 309 311 312 314 315 314 317 325 319 316 315 313 313 320 318 319 320 318 317 316 317 319 320
300 301 302 301 301 301 301 300 300 300 300 301 301 301 301 302 301 302 303 302 302 303 305 307 307 307 306 307 308 309 309 309 311 312 314 316 315 314 320 318 313 313 313 314 314 318 318 318 318 315 314 315 315 316
300 301 301 301 301 301 301 301 301 301 302 301 301 300 300 300 301 302 302 303 303 304 304 306 306 306 307 308 308 305 308 308 309 311 313 318 317 317 317 314 314 315 314 318 319 318 317 316 314 312 311 311 312 312
300 301 301 301 301 301 301 301 299 299 300 300 300 300 301 301 300 302 302 302 303 303 304 305 306 308 304 307 307 307 306 306 310 315 317 317 319 318 317 315 315 314 315 315 317 315 314 314 313 310 310 310 308 308
300 300 300 300 300 301 301 299 300 300 300 300 301 301 300 299 300 300 301 302 302 303 304 305 304 306 302 301 308 310 307 309 313 314 314 318 317 315 313 317 318 318 317 316 314 314 313 312 310 310 309 308 307 306
298 298 299 299 299 299 299 299 300 300 300 301 301 300 299 301 302 303 302 303 304 304 304 305 305 306 301 303 304 310 312 313 315 316 316 317 317 311 309 312 313 314 313 312 312 312 312 310 308 306 305 304 303 303
298 298 298 298 298 299 299 300 300 300 301 301 300 300 302 302 301 304 303 304 305 305 306 307 303 304 302 301 304 310 310 312 315 312 315 314 305 303 303 304 306 308 307 305 306 306 306 305 304 302 301 300 299 298
298 298 298 297 298 298 300 299 300 300 301 302 302 301 302 300 304 304 304 305 307 307 305 304 304 302 301 301 304 306 310 311 309 312 312 306 300 299 299 299 301 301 303 301 299 301 301 299 298 298 297 295 295 295
296 296 297 297 298 300 300 300 300 301 304 303 302 303 304 305 304 303 305 306 303 307 304 304 304 305 303 302 305 308 308 309 314 314 309 301 297 295 294 295 297 294 294 294 293 293 294 293 292 292 292 292 292 290
296 295 295 296 298 299 299 301 301 301 300 299 300 301 300 298 296 296 298 300 298 303 306 307 308 308 306 308 309 309 311 309 305 305 301 296 295 292 291 291 291 291 291 290 290 290 289 289 289 289 289 290 290 289
298 299 298 298 298 300 301 300 300 300 297 295 293 297 295 297 293 293 292 294 296 301 306 307 308 308 307 308 308 305 308 303 301 299 295 294 293 291 291 291 290 290 289 289 289 288 288 288 288 288 288 288 288 287
299 297 297 298 298 300 301 300 297 295 295 296 295 291 293 292 291 289 289 290 294 298 304 306 305 304 307 305 301 298 299 298 296 294 292 292 291 291 290 290 289 289 288 288 288 288 287 287 288 288 286 285 285 284
298 297 297 298 300 299 297 297 295 294 293 292 293 291 289 288 289 289 289 290 294 297 298 298 299 298 298 300 297 297 294 292 292 292 291 291 290 290 289 289 288 288 287 286 286 285 285 285 284 283 283 282 282 282
297 298 299 300 300 299 296 295 295 293 291 290 289 289 289 288 287 286 287 289 289 290 291 292 291 291 290 290 291 292 292 291 289 288 288 288 288 288 287 287 287 286 286 285 285 284 284 284 284 283 283 282 282 281
299 300 300 301 301 297 296 295 294 293 293 290 290 288 287 286 286 286 284 286 287 286 286 286 286 285 285 286 287 291 289 288 288 287 286 286 286 286 285 285 284 284 283 283 282 283 282 282 281 281 280 279 279 279
298 297 297 297 296 296 295 295 294 293 292 292 290 290 289 287 285 284 283 284 283 284 284 283 283 282 283 284 285 288 288 288 286 285 285 284 284 283 283 283 282 282 281 281 280 279 279 278 277 277 278 277 276 275
298 299 297 296 296 296 296 295 296 295 295 293 293 291 290 288 287 285 283 282 282 282 281 281 281 280 281 281 282 283 284 285 283 283 282 282 281 281 281 280 280 279 279 278 277 277 276 276 276 276 275 275 274 275
294 294 294 295 296 296 295 296 296 296 297 295 293 292 291 289 287 285 283 282 281 281 280 280 280 280 279 279 280 280 281 281 280 280 280 279 279 279 278 278 277 277 276 275 275 275 274 274 274 274 274 274 273 272
292 291 292 293 295 295 294 294 295 294 293 293 292 291 289 289 287 285 283 281 280 280 280 281 280 278 278 278 278 278 278 278 278 277 277 277 277 276 276 275 275 275 275 274 274 274 273 273 272 272 272 272 271 271
290 288 291 292 292 294 294 293 293 293 292 292 290 290 289 289 288 286 284 282 280 280 278 278 278 278 277 276 276 277 277 277 277 277 277 276 275 275 274 274 274 274 274 273 273 272 272 271 271 271 271 271 270 270
289 286 288 289 290 291 291 291 291 291 291 290 289 288 288 288 286 285 282 280 278 278 278 277 276 276 275 275 275 275 275 277 278 278 276 276 276 276 274 273 273 273 273 272 272 271 271 271 270 270 269 270 269 269
290 289 286 286 288 289 289 288 287 287 287 287 287 287 288 286 284 281 279 278 277 276 276 276 275 275 275 275 276 275 275 275 275 274 274 274 275 274 274 273 272 271 271 271 271 270 270 269 269 269 269 268 269 268
286 285 285 284 283 284 285 285 284 284 283 282 285 283 283 283 281 279 277 276 275 275 276 275 275 275 274 274 274 273 273 273 273 273 273 273 273 272 272 272 271 271 271 271 271 270 270 269 269 269 269 268 268 267
286 284 281 280 282 280 280 282 281 279 278 281 284 281 278 277 277 276 276 275 275 275 275 275 275 275 275 274 274 274 274 274 274 274 274 272 270 271 271 271 271 270 269 270 270 270 270 269 269 269 268 268 267 266
285 284 282 280 281 280 278 278 279 278 277 277 276 275 275 274 275 275 276 276 275 275 275 275 275 274 273 273 272 272 273 273 273 274 273 271 270 270 270 270 270 270 269 269 268 269 269 268 268 267 267 267 267 267
286 284 283 281 280 278 277 277 278 278 278 278 278 276 275 274 273 273 274 274 275 275 274 274 274 273 273 273 273 272 272 272 272 272 271 271 271 271 270 270 270 269 269 269 269 268 268 267 266 266 266 267 267 267
285 284 282 281 280 278 279 281 281 280 280 279 278 277 277 278 277 274 274 274 274 274 273 273 273 273 273 272 271 271 271 271 271 271 270 270 270 270 270 269 269 269 269 268 268 268 268 268 268 267 267 267 267 267
285 284 283 282 281 282 280 282 282 281 281 280 279 279 277 278 277 273 273 274 274 273 273 273 274 273 272 271 271 271 271 271 270 270 270 269 269 268 269 269 269 269 269 268 268 268 268 268 268 267 267 267 267 267

GFSWCAN_850_thetae_078.txt.gz
Theta_e
297 296 296 295 295 296 297 298 299 299 299 299 299 299 299 298 299 300 301 302 302 302 303 303 305 305 305 305 304 305 305 306 304 304 306 305 304 309 313 313 314 315 315 317 316 318 320 316 319 318 316 317 318 320
296 297 296 295 297 299 299 300 300 300 301 300 300 300 300 299 298 299 300 301 302 302 303 303 303 305 305 305 306 306 306 306 306 305 304 304 306 304 310 311 311 314 317 317 315 315 316 316 318 317 319 319 320 321
296 295 298 299 300 300 300 300 301 301 301 301 301 301 300 300 299 299 300 300 302 302 303 303 304 304 305 305 307 307 307 308 308 309 306 306 307 307 307 309 311 314 315 316 315 316 316 316 316 317 317 318 319 319
298 299 299 300 301 300 301 301 300 300 300 300 301 301 300 300 300 299 300 301 302 301 302 304 304 304 305 306 307 306 307 307 308 309 307 305 304 309 307 309 311 310 313 314 313 312 313 314 316 314 316 317 319 320
299 300 301 302 301 300 300 300 300 301 301 301 301 302 300 301 300 300 300 301 301 303 303 304 305 305 304 306 306 306 307 307 308 308 305 306 307 309 308 308 310 311 312 311 311 312 313 314 314 314 315 315 317 318
299 301 301 301 300 300 300 301 302 302 301 300 300 302 301 300 300 300 300 300 301 303 305 304 304 305 306 306 306 307 308 308 308 308 306 309 310 310 307 311 309 312 312 313 313 314 314 314 316 317 316 316 317 318
300 301 301 301 300 300 300 300 300 301 301 300 302 301 301 300 300 300 301 300 301 303 305 304 304 306 306 306 306 307 307 308 308 308 307 308 309 308 305 309 309 310 310 311 313 314 317 317 317 316 316 316 316 316
301 301 301 300 300 300 300 300 301 300 301 302 301 301 301 300 300 301 302 301 302 301 304 303 304 305 306 306 306 307 307 308 308 307 307 305 308 307 308 308 309 310 311 309 315 315 316 316 314 313 313 313 314 313
300 300 301 301 300 301 300 300 300 300 300 300 299 300 300 300 301 302 301 302 303 303 301 296 300 306 305 305 306 306 307 305 305 298 303 306 305 306 309 310 309 309 310 311 315 316 314 314 312 311 311 310 311 307
300 300 300 301 301 301 301 301 301 301 300 300 300 300 300 301 302 302 302 302 302 303 303 296 301 303 303 302 300 302 304 298 305 304 307 301 303 308 309 306 306 307 309 312 313 310 311 309 309 308 308 307 306 304
300 300 300 300 301 302 301 300 300 300 300 301 300 299 301 301 301 300 300 301 302 301 302 302 301 300 302 301 300 303 304 304 304 303 305 306 306 307 306 307 308 302 304 309 312 312 311 310 308 307 304 304 303 301
299 299 299 300 300 300 300 301 301 301 301 301 301 301 301 301 301 299 297 299 300 301 300 299 303 301 301 302 297 300 306 304 305 303 304 306 302 299 300 302 306 300 304 306 307 309 306 305 305 304 302 300 300 299
299 300 300 300 300 300 300 300 301 301 302 301 301 301 300 299 297 295 298 301 302 299 302 301 301 299 300 300 299 301 306 305 305 306 307 300 297 295 296 298 300 296 303 303 303 302 301 299 298 300 297 295 295 294
299 300 300 300 301 301 301 301 302 301 302 301 297 293 292 294 296 295 298 301 296 299 301 301 299 300 299 300 300 304 305 305 309 307 301 296 293 292 293 294 296 292 296 296 297 297 295 294 292 291 292 292 292 291
299 300 300 300 300 299 299 300 301 301 297 294 295 294 294 292 291 291 292 294 293 297 302 301 303 302 301 302 302 304 306 302 299 296 296 292 292 291 290 290 290 290 290 290 290 290 289 289 289 288 289 290 290 288
298 299 299 300 299 299 299 298 299 296 293 290 289 290 290 291 289 289 289 290 291 295 301 301 303 304 304 299 299 298 300 296 294 293 292 290 289 289 288 288 288 288 287 287 287 287 287 287 286 285 287 287 287 287
300 300 299 298 297 298 299 298 294 292 292 291 288 287 288 288 287 287 287 288 291 295 300 300 297 297 298 296 295 294 293 293 292 291 290 289 288 287 287 286 286 286 286 285 286 286 286 286 286 286 285 284 285 284
298 298 298 298 299 298 294 293 291 290 288 288 288 288 285 284 284 284 285 287 290 293 293 293 291 290 288 292 289 291 289 288 289 289 288 288 287 287 286 285 285 285 285 285 285 285 285 286 285 283 283 283 283 282
299 299 299 299 298 296 294 293 291 288 288 287 286 287 286 284 283 283 285 288 286 287 287 286 284 285 285 286 286 288 287 287 286 285 286 286 286 286 285 285 285 284 284 284 284 284 283 283 283 282 282 282 281 280
297 296 298 299 298 296 294 293 292 290 288 287 285 283 282 282 282 282 282 283 283 283 282 282 282 282 282 282 285 287 286 286 285 284 283 284 284 285 284 284 284 284 284 284 283 283 283 282 281 281 281 280 280 278
297 297 297 297 296 296 295 294 292 291 290 289 287 287 286 284 281 281 281 281 281 281 281 280 280 280 282 284 286 286 286 285 284 283 282 282 282 283 283 283 283 283 283 283 282 282 282 281 280 279 279 278 277 276
296 296 296 296 296 296 295 294 293 293 291 290 290 288 287 284 282 281 281 280 280 279 279 279 279 280 282 282 283 284 284 284 283 283 282 282 282 282 282 282 283 282 281 280 280 280 278 278 278 277 277 275 275 274
294 294 294 294 294 294 294 295 294 293 294 292 290 289 287 285 283 281 281 280 280 279 279 279 279 279 279 280 281 282 282 283 282 281 281 281 280 280 280 280 280 281 280 278 277 276 276 275 275 275 275 274 273 272
293 292 292 292 293 289 292 292 292 291 290 289 289 288 288 285 283 281 280 279 278 278 278 278 278 279 279 279 278 278 279 280 280 279 279 279 279 278 278 278 277 277 276 275 275 275 275 275 274 274 273 272 272 271
289 285 288 283 289 288 285 282 283 284 282 283 284 285 288 286 282 280 279 278 277 277 277 277 278 277 276 276 277 277 278 279 279 278 277 279 278 278 276 275 275 274 274 275 274 274 273 273 273 272 272 272 271 271
282 285 283 283 284 283 285 283 283 281 281 283 282 285 284 276 275 278 279 276 276 276 276 277 277 277 277 277 277 277 277 277 278 278 276 276 276 276 275 275 274 274 273 273 273 273 272 272 271 271 271 270 270 270
280 277 283 282 283 285 280 282 281 276 275 277 278 273 273 273 274 277 276 276 275 275 276 276 277 277 276 276 276 276 276 277 278 277 275 275 274 274 274 274 274 273 273 272 272 272 272 272 271 270 270 269 269 269
282 281 275 279 279 279 272 272 273 274 273 278 277 271 271 271 274 276 275 275 275 275 275 275 275 275 275 274 274 274 274 273 273 273 273 273 272 272 272 272 272 271 271 271 271 271 271 271 271 270 270 270 269 269
282 281 280 272 276 277 278 272 273 276 276 278 270 270 276 276 276 275 275 275 275 275 275 275 274 275 275 275 275 274 274 274 274 273 273 273 272 271 271 271 271 271 271 271 270 270 270 270 269 269 269 269 269 269
282 280 278 276 270 273 278 277 276 275 276 275 274 274 275 275 276 275 275 275 275 275 275 275 275 274 273 274 274 274 274 274 274 273 273 272 272 271 271 271 271 271 270 270 270 270 270 269 269 269 269 268 268 268
283 280 279 277 276 277 277 277 276 275 275 275 275 274 274 274 275 275 275 275 275 275 275 275 275 275 274 273 273 272 273 272 272 272 272 271 271 271 270 270 270 270 270 270 270 270 270 269 269 269 269 269 268 268
282 280 277 271 277 278 277 278 279 278 277 276 276 275 275 275 274 274 274 274 274 274 274 274 274 275 273 272 272 272 272 271 271 271 270 270 270 270 270 270 270 270 270 269 269 269 269 269 269 268 268 268 268 268
281 280 279 278 278 278 279 280 280 280 279 278 277 277 276 275 273 273 273 274 274 274 274 274 274 273 272 271 271 271 271 271 270 270 270 270 269 269 269 269 269 269 269 269 269 269 269 269 269 269 269 268 268 268

GFSWCAN_850_thetae_081.txt.gz
Theta_e
297 296 296 296 296 296 296 296 295 295 296 297 297 298 298 298 300 299 299 300 301 301 302 302 303 304 304 303 303 304 304 303 302 303 304 305 301 305 307 310 311 312 313 314 315 317 317 315 318 318 316 317 316 318
298 297 297 297 297 297 296 295 296 297 299 298 298 298 298 298 298 300 300 300 300 301 302 302 302 303 303 303 304 304 305 304 304 303 302 302 302 300 307 307 310 313 312 314 315 314 313 315 317 317 316 316 318 319
297 296 296 295 297 298 298 299 300 300 300 300 300 299 299 299 298 298 300 301 302 301 301 302 303 303 304 303 304 305 305 306 306 308 303 304 305 303 303 307 309 310 312 313 313 313 313 314 314 316 316 318 317 319
295 296 297 298 299 300 300 300 300 300 300 299 300 300 300 299 299 299 298 300 300 300 301 303 301 303 303 304 305 305 306 307 307 308 307 303 303 306 304 306 308 309 313 314 313 312 313 314 315 315 315 316 318 318
299 299 299 300 301 301 300 300 300 300 300 301 300 301 300 300 299 299 299 299 301 302 302 302 303 302 303 304 304 304 305 306 307 306 303 306 305 307 305 306 307 310 311 312 312 312 312 312 313 313 313 314 315 318
300 301 301 300 301 300 300 300 300 300 300 300 300 301 301 301 300 301 300 299 299 301 303 304 303 303 304 304 305 305 306 306 307 307 304 308 309 308 301 307 307 309 309 309 309 309 309 313 313 314 315 315 315 317
300 300 300 301 300 300 300 300 301 301 301 300 300 300 301 300 300 300 300 300 299 299 302 303 301 305 303 304 305 305 306 306 307 307 305 307 308 308 301 305 308 309 309 308 308 309 310 315 316 315 316 315 314 316
300 300 300 300 300 300 300 300 301 301 301 301 301 300 301 300 299 300 301 300 299 301 302 302 304 305 306 305 305 305 306 306 307 307 306 305 307 305 304 305 307 308 308 308 309 310 310 311 315 313 313 313 314 312
300 300 300 300 299 300 300 301 300 300 300 300 301 301 299 299 300 300 301 300 300 302 301 297 304 305 305 304 305 305 306 304 304 301 303 305 303 306 305 306 308 309 308 307 308 311 312 313 312 311 311 310 311 306
301 300 300 301 301 299 300 301 300 300 300 300 299 300 299 301 301 300 300 301 302 302 301 300 300 304 304 302 301 302 303 302 305 304 305 299 303 305 306 307 308 308 307 308 310 309 310 310 309 307 306 305 306 303
301 301 301 301 300 300 299 299 299 300 300 300 300 300 301 301 301 301 299 301 300 300 300 300 301 302 302 301 303 301 303 301 304 301 303 303 304 303 303 303 304 305 307 308 308 309 310 310 306 304 301 300 298 297
300 300 300 300 300 301 300 300 301 301 301 300 300 300 301 301 300 300 301 300 297 300 299 299 299 301 301 302 300 301 304 303 306 300 301 305 302 297 297 298 299 301 302 304 303 306 307 305 303 302 300 297 295 295
300 300 300 300 300 301 301 301 301 301 301 301 301 299 299 296 295 296 299 302 301 300 300 300 299 299 300 300 299 302 305 305 302 306 308 300 296 294 294 294 294 296 300 300 296 299 300 299 297 298 295 292 291 291
300 300 300 300 301 301 301 301 301 301 301 298 295 291 289 287 292 293 295 298 294 298 300 299 299 300 299 299 299 304 301 304 307 307 299 294 293 292 292 293 293 292 295 294 291 292 290 294 293 291 290 289 290 289
300 300 300 300 300 299 300 300 300 301 296 292 293 292 292 291 290 290 291 292 292 296 300 300 300 301 300 300 300 302 304 298 297 294 291 292 291 290 289 290 290 289 289 290 288 289 287 288 289 288 288 288 289 288
299 300 300 298 298 299 298 298 298 295 291 289 287 289 288 289 287 287 287 289 291 296 300 302 301 303 300 296 297 295 296 294 293 291 290 289 288 288 288 287 287 287 287 286 286 285 285 286 286 285 286 287 286 286
299 299 298 299 297 295 297 297 293 291 290 288 287 284 285 285 285 285 285 286 291 294 297 298 296 295 297 295 294 293 290 291 290 288 288 287 286 286 286 286 285 285 284 284 284 285 284 285 286 287 285 284 285 285
298 299 298 298 298 297 294 292 289 288 287 287 286 285 283 282 282 282 284 286 290 292 291 290 289 289 288 290 288 289 287 286 287 287 286 286 285 285 285 284 284 284 283 283 283 283 284 286 286 283 283 283 283 282
298 299 299 299 297 295 293 292 289 287 286 285 284 284 284 282 281 282 283 285 285 287 285 285 284 283 283 284 284 286 286 285 284 284 284 285 285 284 284 284 283 283 283 283 283 283 282 283 283 282 282 283 282 281
296 297 297 298 297 295 293 292 290 288 286 285 283 282 282 281 281 281 281 282 282 281 281 281 280 280 280 281 283 284 285 284 284 283 282 283 283 284 283 283 283 283 283 283 283 284 283 282 282 282 282 282 281 279
298 297 297 296 295 295 293 292 291 289 288 287 286 286 284 282 280 280 280 280 280 280 279 279 279 279 281 283 285 285 285 285 283 283 281 281 282 283 283 283 283 284 283 283 283 282 282 282 281 280 280 279 277 276
296 296 296 296 295 295 294 293 292 291 290 289 288 287 285 281 281 280 280 279 279 278 278 278 278 279 281 282 282 283 283 284 283 283 282 282 282 282 282 282 283 282 282 282 282 281 280 279 279 278 277 276 275 275
295 294 293 293 293 293 293 293 293 292 292 289 289 287 284 282 281 280 279 279 278 278 278 278 278 279 279 279 281 281 281 282 282 281 281 281 281 281 281 281 281 281 281 280 280 280 279 277 276 276 275 274 274 273
294 291 290 290 291 286 291 289 290 288 288 288 289 288 285 284 281 280 279 278 276 277 277 278 278 278 279 279 278 278 279 280 280 279 279 280 279 279 279 280 280 280 279 277 276 276 276 275 274 274 273 273 272 271
289 284 287 282 287 285 282 280 281 284 281 282 282 284 284 282 280 279 277 277 276 276 276 277 277 277 276 276 276 277 278 279 279 278 277 278 278 278 278 277 276 275 275 276 275 275 274 273 273 272 272 271 271 271
279 283 281 278 281 280 281 277 278 277 277 278 278 280 280 274 274 275 277 275 275 275 276 276 276 276 276 276 276 277 276 277 278 278 276 277 277 278 276 275 275 274 273 273 274 274 273 273 272 272 272 271 271 270
277 275 280 280 281 281 276 278 277 273 272 274 273 272 270 270 271 276 276 275 275 275 275 276 276 277 276 276 276 276 276 277 278 277 276 276 276 275 275 275 274 274 273 272 272 272 272 272 272 271 271 270 270 269
280 279 274 276 278 278 268 269 270 271 272 277 274 269 268 268 272 275 275 275 275 275 275 276 276 276 276 276 276 276 276 275 275 274 274 274 273 273 273 273 273 273 272 272 271 271 271 271 270 270 270 269 269 269
279 279 278 269 274 276 275 268 271 275 275 276 267 267 275 275 275 275 274 275 275 275 275 275 275 275 275 275 275 274 274 274 273 273 273 273 273 272 272 272 271 271 271 271 271 270 270 270 270 270 269 269 269 268
279 278 276 274 270 273 276 275 274 274 274 274 274 274 274 274 274 274 275 275 275 275 275 275 275 274 274 274 274 274 274 274 273 273 273 272 272 271 271 270 270 270 270 270 270 270 270 270 269 269 269 269 269 269
280 279 277 276 275 275 275 275 275 275 275 274 274 274 273 274 274 274 274 274 274 274 274 274 274 274 273 273 272 272 272 272 272 271 271 271 271 271 270 270 270 270 270 270 269 269 269 269 268 268 268 268 268 268
279 277 276 270 277 276 277 278 277 276 276 275 275 275 275 274 274 273 273 273 274 274 274 274 274 274 272 272 272 272 272 271 271 271 270 270 270 270 270 269 269 269 269 269 269 269 269 269 268 268 268 268 268 268
279 279 278 278 277 277 278 279 279 278 277 277 276 276 275 274 272 273 273 274 273 273 273 273 273 273 271 271 271 271 271 270 270 270 270 270 269 269 268 269 269 269 269 269 268 268 268 268 268 268 268 268 268 268

GFSWCAN_850_thetae_084.txt.gz
Theta_e
295 296 297 297 297 297 296 297 297 296 296 295 296 297 297 299 299 299 299 299 299 300 301 301 302 302 303 303 303 303 304 303 303 305 305 305 304 304 305 306 310 309 312 313 314 316 316 312 313 318 315 316 317 317
296 297 297 297 297 297 297 297 296 296 296 296 295 295 297 297 298 299 299 299 299 300 301 301 301 302 302 303 303 303 305 303 303 303 300 301 301 299 305 306 305 308 309 310 312 314 312 310 312 311 312 317 316 317
296 297 297 297 296 296 297 296 296 296 296 295 295 296 297 297 298 298 300 299 299 300 299 300 302 302 303 303 302 303 303 304 305 305 305 303 302 302 302 304 305 306 309 310 311 310 310 310 310 311 314 315 316 316
297 297 296 297 298 298 297 295 298 298 298 298 298 298 298 298 298 298 298 300 300 299 300 302 301 302 302 303 303 303 303 304 305 305 306 306 303 304 302 304 305 305 307 308 310 311 312 312 312 311 312 313 315 314
296 297 298 300 300 299 299 299 299 299 299 299 299 300 299 299 299 298 299 299 300 301 302 301 302 302 301 302 303 303 304 305 305 306 305 307 305 307 302 303 304 306 306 308 308 309 309 309 309 311 313 314 313 316
299 299 301 301 301 300 300 300 300 300 300 301 300 299 299 300 299 300 299 298 299 299 301 302 302 302 302 302 303 304 304 305 305 305 306 306 308 307 306 304 305 308 308 309 308 309 309 308 308 313 314 314 314 315
299 300 300 301 300 300 300 300 300 300 300 299 300 301 300 300 300 299 300 300 298 300 300 302 302 304 303 303 303 304 304 305 305 306 306 305 306 308 304 307 306 308 308 308 308 308 308 307 309 309 313 312 315 315
300 300 300 300 300 299 299 299 300 300 300 299 300 301 300 301 300 299 300 300 299 299 300 301 303 304 303 304 304 304 305 305 305 305 305 303 305 304 307 303 306 307 307 307 308 308 308 309 310 311 312 313 311 311
300 300 300 299 300 300 300 300 301 300 300 300 299 300 301 300 299 300 300 299 299 300 301 298 304 305 304 304 305 304 304 303 304 304 305 304 302 306 305 304 306 306 307 307 308 307 308 310 310 309 309 307 311 307
300 300 299 300 300 300 300 300 301 301 301 300 300 299 298 300 300 300 300 300 300 301 301 298 300 304 304 303 302 303 304 303 305 304 303 301 302 304 305 305 306 306 307 308 306 307 308 308 308 307 306 304 302 300
300 299 299 300 300 300 299 299 300 300 300 300 300 300 300 300 300 300 298 300 299 300 298 300 301 303 303 303 303 300 303 301 302 300 303 303 304 302 299 300 300 302 303 304 304 306 306 308 307 304 302 299 298 296
300 300 300 299 300 301 300 300 300 301 301 300 300 300 300 300 300 300 300 299 301 301 299 297 300 301 301 303 302 301 301 301 302 299 304 304 301 296 296 296 298 299 299 299 301 302 303 304 304 301 299 295 295 293
300 300 300 300 301 301 300 300 300 300 300 301 301 298 297 293 298 299 298 301 301 299 298 298 299 300 300 300 300 301 304 303 301 305 304 299 294 293 293 294 294 295 295 296 296 296 298 297 296 297 293 291 290 289
300 300 300 300 299 299 300 301 301 301 302 296 293 289 289 286 291 292 293 296 294 296 298 298 298 298 297 299 300 301 298 303 306 306 297 293 292 291 291 291 291 290 291 291 290 290 291 291 289 288 288 287 288 286
300 300 300 300 299 298 298 297 298 297 294 291 290 289 289 289 288 288 289 292 291 296 299 298 300 300 299 300 300 302 303 299 294 291 290 290 289 289 288 288 288 287 287 287 287 287 286 285 284 283 284 286 287 287
299 299 299 298 298 298 298 296 297 294 289 287 284 287 286 287 285 285 285 287 290 295 299 302 301 301 297 296 295 294 293 291 291 291 289 288 287 286 286 286 286 286 286 285 284 284 283 284 284 282 282 284 286 287
299 298 298 299 296 295 297 296 292 289 288 287 284 282 284 283 283 283 283 284 290 293 295 295 295 293 294 293 292 290 286 289 288 287 286 286 285 285 285 285 284 284 284 283 283 283 282 281 282 282 281 282 284 284
298 299 299 299 297 297 294 291 288 287 286 285 285 283 281 281 281 281 283 284 289 291 289 288 288 288 287 289 287 287 286 285 285 285 285 285 284 284 284 283 283 282 282 282 282 281 281 282 282 281 281 282 282 281
297 298 299 299 296 295 292 290 288 285 284 283 282 282 282 281 281 281 283 285 285 286 284 284 283 282 282 283 283 284 285 284 283 282 283 283 284 283 283 282 282 282 281 281 282 282 281 282 282 282 282 282 282 281
297 296 297 297 297 294 292 290 289 287 285 284 283 281 281 280 280 280 280 281 281 281 280 280 280 279 279 280 281 283 284 283 283 282 281 282 282 283 282 282 281 282 282 282 282 283 283 282 282 282 282 282 281 279
298 296 295 295 294 293 292 291 289 287 286 286 285 285 282 281 280 279 279 280 279 279 279 278 278 278 279 281 283 284 284 284 284 282 281 280 281 282 282 282 283 283 282 282 282 282 282 281 281 281 281 279 277 276
296 296 295 295 295 294 293 291 290 289 289 287 287 284 283 280 280 279 279 278 278 278 277 277 277 277 279 280 281 282 282 282 282 282 281 281 281 282 282 281 282 282 282 281 281 281 280 280 279 278 277 276 275 275
295 294 293 293 293 293 292 292 291 290 287 287 288 284 281 281 280 279 278 277 276 276 277 277 277 278 278 278 280 280 280 281 280 280 281 281 281 281 281 281 281 282 281 280 280 280 279 278 276 276 275 274 274 273
293 290 289 289 290 283 289 287 288 287 287 287 287 285 283 282 280 279 277 276 275 276 276 277 278 278 278 279 278 278 278 279 279 279 279 279 280 279 280 280 280 280 280 279 278 277 276 275 275 274 274 273 272 272
289 282 285 279 285 282 279 277 279 283 282 283 283 281 279 280 277 276 276 275 275 275 275 276 276 276 276 276 276 277 277 278 278 278 277 278 278 278 278 278 277 276 276 276 276 275 274 274 273 273 272 272 272 271
277 280 279 276 278 277 278 274 274 275 274 276 276 277 277 273 273 275 276 275 274 274 275 275 276 276 276 276 276 276 276 276 277 278 276 277 277 278 277 277 276 275 274 274 274 274 273 273 272 272 272 271 270 270
275 273 278 278 279 278 273 275 275 271 271 271 269 267 268 268 270 275 275 274 274 274 275 275 276 276 276 276 276 276 276 276 277 277 276 276 276 276 275 275 274 274 273 273 272 272 272 272 272 271 271 270 270 269
278 278 272 274 276 275 266 268 268 269 270 275 273 267 266 266 271 274 274 274 274 275 275 275 275 275 275 275 275 275 274 274 274 274 274 274 274 273 273 273 273 273 272 272 272 272 271 271 271 270 270 269 269 269
277 277 277 268 274 274 273 267 270 273 274 274 265 267 273 274 274 274 274 274 274 274 275 275 274 274 275 275 274 274 274 273 273 273 273 273 272 272 272 271 271 271 271 271 271 271 271 270 270 270 270 269 269 269
277 277 275 274 269 270 273 273 273 273 274 273 273 273 273 273 273 274 274 274 274 275 275 274 274 273 273 273 273 273 273 274 273 273 272 272 271 271 271 271 271 270 270 270 270 270 270 269 269 269 269 269 269 268
278 278 276 275 273 274 274 274 274 274 274 274 274 273 273 273 273 273 274 274 274 274 274 274 274 274 272 272 272 272 272 272 272 271 271 271 271 270 270 270 270 270 270 270 270 269 269 269 269 269 269 268 268 268
277 276 275 270 275 276 275 277 276 276 275 275 274 274 274 274 273 273 273 273 273 273 273 274 274 273 272 272 272 271 271 271 271 270 270 270 270 270 270 270 270 270 270 269 269 269 269 269 268 268 268 268 268 268
278 278 277 276 276 276 277 278 277 276 276 275 275 275 274 273 272 272 273 273 273 273 273 273 273 272 271 271 271 271 271 270 270 270 270 270 269 269 269 269 269 269 269 269 269 269 269 269 268 268 268 268 268 268

GFSWCAN_850_thetae_087.txt.gz
Theta_e
293 293 294 295 296 296 297 297 297 297 298 298 298 298 298 299 298 298 298 298 296 297 297 299 300 300 301 302 304 303 304 303 302 305 305 305 306 306 306 306 311 310 311 310 309 310 312 312 314 315 314 312 312 312
293 294 294 295 296 296 297 297 297 297 297 298 297 297 298 298 298 298 299 298 298 297 298 298 298 300 301 302 302 302 303 303 304 305 304 305 305 304 306 306 305 308 311 313 312 313 312 310 312 311 311 312 312 312
293 294 295 296 296 296 297 297 297 297 297 296 296 296 296 297 298 298 299 299 298 299 298 299 300 300 301 301 301 302 303 303 303 303 303 303 304 304 307 307 307 306 307 311 311 310 311 310 310 311 311 311 311 312
295 296 296 296 297 297 297 296 296 295 297 297 297 297 296 295 296 297 298 298 298 298 299 300 300 300 301 301 302 302 302 303 303 302 303 306 306 304 305 306 306 306 308 309 309 309 309 308 311 310 309 310 313 313
297 297 297 297 297 298 298 299 298 297 295 295 296 296 296 295 296 298 298 298 299 299 301 300 300 301 300 301 302 302 302 302 303 305 305 307 305 307 307 305 307 306 308 309 310 308 308 308 309 308 308 312 313 314
299 299 299 299 300 300 300 300 299 298 298 296 299 297 296 297 298 298 299 298 299 299 301 302 301 301 302 301 302 302 303 303 303 304 304 304 305 306 308 307 306 307 307 307 307 308 309 308 308 308 309 310 312 313
300 300 300 300 300 300 300 300 300 299 299 298 299 299 299 298 298 298 299 300 299 299 300 301 302 303 302 301 301 302 303 303 303 302 304 305 306 307 306 307 306 307 307 307 307 307 307 307 307 308 309 310 310 311
300 300 299 299 299 299 300 300 300 300 300 299 299 299 299 299 299 298 300 299 299 298 299 301 301 303 302 302 302 302 303 303 303 304 304 305 304 305 307 306 306 305 305 305 305 305 306 307 307 307 308 309 308 306
299 299 299 300 299 299 299 299 299 300 300 300 300 299 300 300 299 299 300 299 298 299 299 300 301 304 302 303 303 303 303 303 303 303 304 305 306 306 306 306 305 305 304 305 306 306 307 307 307 308 306 305 304 302
299 300 300 300 300 300 300 300 300 300 300 300 300 299 298 300 299 299 299 299 299 300 300 300 300 304 303 304 303 302 302 304 305 303 303 305 306 303 302 303 303 301 302 304 305 306 306 306 306 306 304 302 301 300
299 299 299 299 299 299 300 300 300 299 300 299 300 300 299 299 300 300 298 299 299 298 298 299 300 301 302 304 303 302 303 303 305 303 306 305 304 301 298 298 300 300 300 300 301 301 303 303 302 303 302 298 296 293
299 300 300 299 300 300 299 299 299 300 300 300 300 299 300 300 299 300 299 299 299 300 299 299 300 301 301 303 303 300 304 302 303 300 304 303 299 294 294 295 297 297 298 298 299 299 301 301 300 300 299 296 293 291
299 300 301 300 301 300 300 300 300 300 300 300 301 297 296 293 297 297 299 301 301 300 298 299 300 300 301 301 301 302 303 303 301 305 304 297 293 292 291 291 293 293 294 294 294 295 296 296 294 294 293 292 291 288
299 298 299 299 301 301 300 300 300 300 300 295 292 289 289 286 290 290 293 296 294 296 298 299 298 299 298 300 301 303 302 303 305 307 298 292 290 289 288 289 289 289 290 290 290 289 289 290 289 287 287 286 286 284
299 298 297 297 296 298 300 301 301 298 293 289 289 288 287 288 286 287 288 291 291 295 299 300 300 299 299 300 299 302 303 300 295 293 291 289 287 287 287 287 287 287 287 286 286 286 285 285 284 282 281 281 282 282
299 298 298 295 295 294 297 300 298 293 288 285 283 285 284 286 284 284 284 286 289 294 297 300 301 297 296 296 296 293 295 292 291 289 288 286 285 285 285 285 285 285 285 284 284 283 282 282 282 281 281 281 281 282
299 298 298 294 294 295 294 294 290 287 286 284 283 281 282 282 282 282 282 283 289 292 295 294 292 293 294 293 290 289 288 287 287 286 285 285 284 284 284 284 283 283 283 282 282 282 281 280 280 280 280 279 280 280
298 299 299 298 296 295 292 290 287 286 284 284 283 282 281 281 280 281 282 284 289 289 288 288 288 287 286 288 286 286 286 284 283 283 283 283 283 283 283 282 282 282 281 280 280 279 279 280 281 280 280 281 281 281
297 298 299 296 295 294 291 289 287 284 283 282 282 282 281 281 280 281 282 284 284 285 284 283 282 282 281 282 282 282 283 284 282 281 282 282 282 282 282 281 281 280 280 279 279 279 279 279 279 280 281 282 282 281
296 296 296 297 296 292 290 289 288 286 284 283 282 281 280 280 280 280 280 281 281 280 280 280 279 279 278 279 279 281 283 283 282 282 281 281 281 282 281 281 280 280 280 280 279 280 280 280 280 281 281 281 281 279
296 295 294 294 292 292 290 289 287 286 285 285 284 283 281 280 279 279 279 279 278 278 278 277 277 277 278 279 281 282 283 283 283 282 280 279 280 280 281 281 281 281 281 281 281 281 281 281 281 281 281 280 278 276
295 295 294 294 293 293 291 289 288 288 288 286 285 283 281 279 279 278 278 277 277 276 276 276 277 277 278 279 280 280 280 281 281 281 280 280 280 280 280 280 282 281 281 281 281 281 280 280 280 279 277 276 275 274
295 294 292 292 292 291 290 290 290 290 285 287 285 282 281 279 279 278 277 276 275 275 275 276 276 277 277 277 279 279 280 280 280 279 280 280 280 280 280 281 281 281 281 280 280 280 279 277 276 276 275 274 274 273
293 290 288 287 288 282 288 285 287 286 285 286 285 283 282 281 279 278 277 276 274 275 276 276 277 277 277 277 277 277 277 278 278 278 278 279 279 279 279 279 279 279 279 279 278 277 276 275 275 274 274 273 272 272
289 280 283 277 283 279 275 276 278 282 282 281 280 278 277 279 277 276 276 275 274 274 275 275 276 276 275 275 276 276 277 277 278 277 277 277 278 278 278 278 277 277 276 276 276 275 274 274 273 273 272 272 272 271
275 277 277 274 275 276 276 273 273 273 273 274 275 274 275 274 274 275 275 274 274 274 274 275 275 275 275 275 275 276 276 276 277 277 276 276 277 277 277 277 276 276 275 274 274 274 273 273 272 272 271 271 270 270
273 270 276 276 277 276 272 274 274 271 270 270 270 268 269 269 270 275 274 274 274 274 274 275 275 275 275 275 275 275 275 276 277 276 276 276 276 276 276 276 276 275 273 273 273 273 273 272 272 271 271 270 270 269
276 277 271 273 274 273 266 267 268 270 271 274 271 267 266 267 272 273 274 274 274 274 275 275 275 275 274 274 274 274 275 274 274 274 274 274 274 273 273 273 273 272 272 272 272 272 271 271 271 270 270 270 270 269
276 275 275 267 272 272 271 267 270 272 272 273 267 269 272 273 273 273 274 274 274 274 274 274 274 274 274 274 274 274 274 273 273 272 272 272 272 272 272 271 271 271 271 271 271 271 271 270 270 270 270 269 269 269
276 275 273 272 267 270 272 272 272 273 272 272 272 272 272 273 273 273 273 273 274 274 274 273 272 272 272 272 272 273 273 273 272 272 272 271 271 271 271 271 271 270 270 270 270 270 270 270 269 269 269 269 269 268
277 277 274 273 272 273 274 273 274 274 274 273 273 273 272 273 273 273 273 273 273 273 273 273 274 273 271 271 272 272 271 271 271 271 271 271 271 270 270 270 270 270 270 270 269 269 269 269 269 269 268 268 268 268
276 275 274 269 274 275 275 276 276 275 275 274 274 274 274 274 273 272 272 272 272 272 273 273 272 272 271 271 271 271 271 270 270 270 270 270 270 270 269 269 269 269 269 269 269 269 269 269 268 268 268 268 268 268
277 277 276 275 274 275 275 276 275 275 275 274 274 274 273 273 272 272 272 272 272 272 273 273 272 271 271 270 270 270 270 270 270 270 269 269 269 269 269 269 269 269 269 269 269 269 269 269 269 268 268 268 268 268

GFSWCAN_850_thetae_093.txt.gz
Theta_e
291 291 291 291 291 292 292 293 293 294 295 295 296 296 296 296 296 295 295 295 296 297 297 297 297 298 298 299 302 303 305 305 306 307 306 307 308 309 308 309 311 312 312 311 310 312 311 310 313 314 314 312 313 313
291 291 291 291 292 292 293 294 294 294 295 296 297 297 298 298 297 296 296 296 296 297 298 298 297 298 300 300 301 302 304 304 305 306 307 307 309 309 308 309 311 312 310 312 311 311 311 312 312 311 311 311 312 312
291 291 292 293 293 293 294 294 294 294 295 296 298 298 298 298 298 298 297 297 297 297 297 298 298 299 298 299 301 302 303 304 304 304 307 308 310 308 309 309 309 309 310 311 311 311 311 311 309 309 309 310 311 310
292 293 294 294 294 295 295 295 295 295 295 296 297 298 298 298 299 298 297 297 297 297 298 299 299 298 299 300 299 299 301 301 302 304 305 307 309 307 309 309 310 309 310 310 310 310 310 309 309 309 309 310 310 311
294 295 296 296 297 297 297 297 296 295 296 296 297 297 297 298 298 298 297 297 298 297 300 298 299 301 300 299 300 302 301 301 301 302 303 307 307 307 309 309 310 309 310 310 311 310 310 310 309 310 310 310 310 308
297 298 299 299 299 299 299 298 298 296 296 296 297 297 297 298 298 297 296 297 298 298 300 302 301 300 301 302 302 302 302 302 302 301 303 305 306 307 310 310 309 308 309 309 310 309 309 309 310 310 310 310 308 306
299 299 299 299 299 299 300 299 299 298 296 297 297 296 297 297 297 297 299 298 298 298 299 302 302 303 302 302 302 302 302 302 301 302 303 305 306 306 309 309 308 308 308 308 308 308 308 308 309 309 309 309 305 304
299 299 299 299 300 300 299 299 299 298 297 297 298 297 297 297 297 297 299 299 298 298 298 303 304 302 302 301 303 302 302 301 301 302 303 305 305 306 308 306 306 306 307 307 308 309 309 309 309 309 309 307 306 304
299 299 299 299 299 299 299 299 299 300 299 299 297 297 297 297 297 298 298 298 298 299 301 301 304 305 302 302 302 302 302 304 302 304 305 306 307 307 307 306 306 307 307 307 307 306 307 308 308 308 308 307 305 304
299 299 299 300 299 299 299 299 300 299 299 298 297 297 297 297 297 298 299 299 299 300 301 303 304 306 304 303 302 304 302 307 307 305 305 306 306 305 306 305 305 303 302 303 304 305 304 304 303 303 304 305 303 303
300 299 300 300 300 300 299 299 300 299 298 297 297 298 298 297 298 298 297 300 300 302 301 302 303 305 304 306 306 304 305 306 306 307 307 307 307 304 299 299 298 298 299 299 299 299 300 300 299 299 300 302 300 298
300 299 300 300 300 300 299 300 299 298 297 299 300 299 299 299 299 302 303 302 302 302 302 303 303 304 304 305 306 305 306 306 307 306 307 307 299 296 296 295 294 294 295 295 295 294 294 293 293 294 297 298 297 295
299 300 300 300 299 299 300 300 299 299 300 300 300 298 300 298 304 304 302 302 303 303 301 302 304 302 302 303 305 306 305 307 306 308 307 300 295 294 292 292 291 292 291 290 290 290 289 290 291 291 292 292 291 289
299 299 299 299 299 299 300 300 300 299 300 298 299 297 300 300 299 299 301 302 297 301 301 302 302 305 301 304 304 307 307 306 307 307 303 295 291 290 290 289 288 288 287 287 287 286 285 285 287 287 286 286 286 284
299 299 299 299 299 299 300 300 299 296 293 293 295 296 295 292 291 292 292 295 292 295 300 302 303 304 305 305 305 306 308 307 303 300 295 290 289 288 288 287 286 286 286 285 285 283 282 283 283 283 282 282 282 282
297 299 297 299 300 299 299 300 298 292 290 288 288 293 292 295 293 291 290 291 290 293 299 301 305 305 303 303 303 301 303 301 296 292 289 288 287 286 286 285 284 284 284 284 283 282 281 280 280 279 279 279 279 280
296 297 299 295 297 298 297 294 290 289 289 289 288 287 289 289 289 288 288 288 289 293 302 302 302 300 300 299 297 294 294 292 290 289 287 286 285 285 284 284 283 283 282 281 280 280 279 279 278 277 277 277 277 277
297 296 298 298 297 297 295 291 289 288 287 288 288 287 286 286 288 287 287 287 292 294 295 293 294 295 295 296 293 290 289 289 287 286 285 284 284 283 283 283 282 281 281 280 279 279 278 278 277 276 276 276 276 277
298 296 294 295 294 293 291 290 290 288 287 287 286 286 286 286 285 285 286 286 286 288 289 289 289 289 288 286 286 285 286 286 285 284 283 282 282 281 281 281 281 280 280 280 280 279 278 277 277 276 276 275 274 276
295 295 295 295 293 292 291 290 290 289 289 286 286 285 285 285 284 284 283 284 285 284 284 285 284 282 281 281 281 282 283 284 286 287 285 283 282 281 281 280 279 279 278 278 277 277 276 276 276 276 276 276 277 277
294 292 293 294 293 292 291 291 289 288 288 287 286 286 286 285 284 283 283 282 281 281 282 281 280 280 278 279 279 281 281 282 283 284 284 283 281 281 281 280 280 279 278 277 277 276 276 276 276 277 277 277 277 277
293 293 293 293 293 292 291 290 290 290 289 288 288 287 287 286 284 282 282 281 280 279 279 279 278 279 279 278 278 278 279 281 280 281 281 281 282 281 280 280 279 279 278 277 276 276 276 277 277 278 278 277 276 274
293 292 292 292 292 291 290 292 291 291 292 290 288 288 287 285 283 283 282 280 279 278 278 278 278 277 278 278 278 278 278 279 280 279 279 279 279 279 278 278 278 277 276 277 277 277 277 277 277 276 274 273 272 272
292 290 288 289 290 290 289 289 290 290 289 289 288 287 286 285 284 283 282 280 278 278 278 278 279 280 279 278 278 276 277 279 278 278 278 278 277 276 276 276 277 277 277 277 277 277 277 276 274 273 272 272 271 271
289 282 286 287 287 289 289 288 288 289 288 287 285 286 284 285 285 283 282 279 278 278 277 278 278 278 278 278 277 276 275 276 277 276 276 277 277 276 277 277 277 276 276 277 276 276 275 274 273 272 272 271 271 271
283 280 284 285 285 287 288 287 287 286 286 285 284 282 284 285 283 282 280 278 277 277 276 277 278 278 276 275 276 275 274 275 275 275 275 276 276 277 276 276 276 276 276 276 275 274 273 273 272 272 272 272 271 271
283 283 280 280 282 283 284 283 283 284 284 284 284 283 284 283 282 280 277 276 277 275 275 274 276 276 275 275 273 273 274 276 276 275 275 276 276 276 276 274 274 274 274 275 275 274 273 272 272 272 271 271 270 270
280 280 280 279 280 280 280 281 282 281 281 279 281 280 280 281 280 277 276 275 274 274 274 273 273 273 273 273 272 272 273 273 274 274 274 275 275 275 275 275 274 274 274 273 272 272 272 271 271 271 271 270 270 270
280 279 277 276 279 278 279 281 280 277 276 280 281 280 278 276 276 276 275 274 274 275 275 274 273 273 273 272 273 273 273 273 274 273 274 274 272 271 272 271 271 271 271 272 272 272 271 271 270 270 270 270 270 270
279 280 279 278 279 279 276 277 276 276 276 277 276 275 275 274 273 274 274 274 274 273 273 273 272 273 272 273 271 271 272 272 272 272 273 272 270 270 270 270 270 270 270 270 271 271 271 270 270 270 270 269 269 269
280 281 280 279 278 276 276 275 276 276 277 277 278 277 276 274 272 272 272 272 272 273 273 273 273 272 271 271 272 271 270 271 271 271 270 270 270 270 270 270 270 269 269 269 269 269 269 269 268 268 268 268 269 268
280 280 279 279 278 276 276 279 279 279 279 278 277 276 275 277 276 273 273 273 273 272 273 272 271 271 271 271 271 270 270 270 270 270 270 270 270 270 270 270 269 269 269 269 269 269 269 268 268 268 268 267 268 268
280 280 279 279 278 279 278 280 280 279 279 279 277 276 276 277 276 272 272 273 271 271 272 272 272 271 271 270 270 270 270 270 270 270 269 269 269 269 269 269 269 269 269 269 269 269 269 268 268 268 268 268 268 268

GFSWCAN_850_thetae_096.txt.gz
Theta_e
290 290 290 291 292 292 291 291 291 292 292 293 294 294 295 295 295 295 294 294 296 297 297 298 298 298 299 300 301 301 304 305 306 305 305 306 308 309 309 311 310 310 312 312 311 311 312 311 311 314 314 312 312 313
290 289 290 291 291 291 291 291 291 292 293 293 294 294 295 295 295 295 295 295 294 297 297 298 298 298 299 299 299 302 303 300 305 305 306 307 308 311 309 309 311 312 310 311 310 310 311 311 313 313 311 310 310 312
289 290 291 291 291 291 291 292 293 293 293 294 294 295 296 296 296 296 297 296 296 296 297 297 298 299 299 299 299 302 303 302 304 303 306 307 308 309 310 309 309 311 310 310 312 312 312 312 312 310 310 310 311 311
290 291 291 292 292 293 293 294 294 294 294 294 294 295 296 298 298 298 297 297 296 297 297 298 299 299 299 299 300 300 301 300 300 303 302 306 307 306 310 310 311 310 310 311 312 311 311 311 311 311 311 311 311 311
291 292 293 294 294 295 295 295 296 295 295 295 295 295 297 298 298 298 298 297 297 297 300 299 299 299 301 300 299 300 301 300 301 303 303 304 305 307 308 309 309 309 311 312 312 311 311 311 310 310 310 311 311 309
293 294 295 296 297 297 298 298 298 297 296 295 295 296 297 298 298 298 297 297 297 298 298 303 301 302 301 301 302 302 300 302 303 302 302 303 304 306 308 309 309 310 310 310 311 310 310 309 309 310 310 310 309 307
295 297 297 298 299 299 299 299 298 298 298 296 296 296 297 297 298 298 298 298 297 297 298 302 301 301 300 302 302 302 302 303 302 302 302 303 304 305 307 307 307 308 307 308 308 309 310 310 309 309 310 309 307 305
298 298 299 299 299 299 299 299 300 299 299 296 296 297 297 297 297 297 299 299 297 298 298 302 303 302 302 302 303 303 302 302 301 302 303 305 305 305 306 306 306 306 308 308 309 309 309 308 309 309 309 309 308 307
299 299 298 299 299 299 299 299 300 299 299 297 296 297 297 297 296 297 298 298 298 298 299 300 302 304 301 300 301 302 302 303 301 302 305 305 306 306 307 307 308 306 306 305 305 306 307 306 306 305 305 305 307 306
299 299 299 299 299 299 299 299 299 299 298 297 297 298 296 297 298 297 298 299 299 299 300 301 303 304 302 302 302 301 301 305 306 304 304 306 305 305 304 302 301 301 301 301 302 302 301 302 302 302 301 302 303 303
299 300 299 299 299 300 299 299 299 298 297 297 297 298 297 297 297 298 297 299 299 301 301 302 303 305 304 305 303 303 304 306 306 307 307 307 306 300 298 297 297 297 297 297 297 298 297 296 296 296 297 297 300 300
299 300 300 300 300 300 299 299 299 298 297 298 299 298 298 297 298 300 301 301 302 302 303 305 304 304 304 305 305 304 305 305 306 307 308 307 298 295 294 293 293 293 292 292 292 293 291 290 290 292 294 294 295 295
299 299 300 300 300 299 300 300 299 297 298 299 299 299 300 299 303 303 302 302 303 304 303 303 305 303 304 304 305 306 305 305 306 308 306 298 293 292 291 290 290 290 288 288 288 287 287 286 288 289 289 289 289 289
299 299 299 300 300 300 299 299 298 299 300 300 299 299 301 301 301 299 300 302 298 303 302 303 304 304 302 304 304 305 305 306 306 307 300 293 291 290 289 288 287 287 286 286 286 285 284 283 283 285 285 285 285 284
298 299 299 298 298 298 299 299 298 298 294 295 297 298 296 294 293 293 295 296 293 297 300 303 303 303 303 303 302 305 306 307 301 297 294 290 288 288 287 286 285 285 285 285 284 283 281 281 280 281 282 282 282 282
298 298 298 299 299 299 299 299 298 293 291 290 291 294 294 295 294 293 294 294 292 295 300 302 304 305 303 304 305 301 303 298 295 292 289 288 286 286 286 285 284 283 283 283 283 282 280 279 279 278 279 279 279 279
299 298 296 297 299 298 297 296 292 290 290 290 289 289 292 291 291 291 291 290 292 295 302 302 304 301 301 300 297 294 294 292 290 288 287 285 285 285 284 284 283 282 282 281 280 280 279 278 278 278 277 277 277 277
297 294 296 295 294 294 294 292 290 290 289 290 290 288 287 288 289 289 289 289 292 295 296 295 295 296 295 297 293 291 290 289 287 287 285 284 284 283 283 283 282 281 280 280 279 279 278 278 277 276 276 276 276 276
297 297 294 296 297 295 292 292 291 289 289 289 288 288 288 287 286 286 287 288 288 289 291 291 290 290 288 286 286 286 286 287 287 286 284 283 282 282 282 281 281 281 281 280 280 279 278 278 277 276 276 275 275 275
293 294 295 294 294 293 292 292 291 290 290 288 288 287 287 287 287 286 285 286 287 286 285 285 284 282 282 281 281 282 283 284 286 288 285 283 282 282 281 281 280 279 279 278 278 277 277 277 276 276 275 275 275 275
295 294 294 295 293 293 293 291 290 289 289 289 288 288 288 286 285 285 284 283 282 283 283 282 282 280 280 280 280 281 282 283 283 283 284 283 282 282 281 281 280 279 278 278 277 276 276 275 275 275 275 276 276 275
295 296 295 294 293 292 292 291 291 291 290 289 289 288 288 287 285 284 282 281 281 280 280 280 279 281 280 279 279 280 281 282 281 281 281 282 282 281 281 280 280 279 278 278 277 276 276 276 276 276 276 276 275 275
293 293 293 293 292 292 292 293 293 293 292 291 290 289 288 286 285 284 282 281 280 279 279 279 279 279 279 279 278 279 280 280 280 280 280 280 279 279 279 279 278 278 277 277 276 276 276 275 275 275 274 274 273 272
292 290 290 291 292 291 291 291 291 291 290 290 289 288 286 286 285 283 282 281 280 279 279 279 280 281 280 278 277 277 279 279 279 279 279 278 277 277 277 277 277 277 277 276 276 276 275 275 274 274 273 273 272 272
289 284 288 289 290 291 291 290 290 290 289 288 287 287 286 287 286 284 282 281 280 279 279 280 279 278 279 278 277 276 277 277 277 276 278 279 278 277 277 277 277 276 276 276 276 276 275 275 274 273 273 272 272 272
284 282 287 288 288 290 290 290 289 289 287 287 286 285 287 286 285 283 282 280 278 278 277 278 279 278 277 276 275 275 274 276 276 275 276 277 278 278 277 276 275 275 275 275 275 274 274 274 273 273 272 272 271 271
285 284 283 284 286 287 287 286 286 286 286 286 286 286 286 285 283 281 278 278 277 276 276 276 276 276 276 275 274 274 273 274 275 274 275 276 276 276 276 275 274 274 274 274 274 274 274 273 273 272 271 271 271 270
282 283 282 282 283 283 283 284 284 284 283 283 283 283 283 283 282 279 277 276 276 275 275 275 274 274 273 273 273 273 273 274 274 274 275 275 274 273 273 273 274 274 274 273 273 272 272 272 271 271 271 270 270 270
283 281 280 280 281 281 281 283 282 279 279 283 284 281 279 278 277 277 276 276 276 276 276 275 275 275 274 273 272 272 272 274 275 275 275 274 272 271 271 271 271 271 272 272 272 271 271 271 271 271 270 270 269 269
283 283 281 280 280 280 279 280 279 279 278 278 277 276 276 275 276 276 276 276 275 275 274 274 274 274 274 274 272 271 272 272 273 273 273 271 270 270 270 270 270 270 270 270 270 271 270 270 270 270 270 270 269 269
284 283 282 280 279 278 278 279 279 279 280 279 279 277 276 274 273 273 274 274 274 275 275 273 272 272 271 272 273 272 270 271 271 270 270 269 269 269 270 270 269 269 269 269 269 269 269 269 270 269 269 269 269 268
284 282 281 280 279 278 279 282 281 281 280 279 279 278 278 279 277 274 274 274 275 273 273 272 271 271 271 271 271 271 270 270 270 270 270 270 270 269 269 269 268 268 269 268 268 268 269 269 269 269 269 268 268 268
282 281 281 280 279 281 280 282 281 281 281 280 279 279 277 279 277 273 273 273 273 272 271 271 272 271 271 270 270 270 270 270 270 270 270 269 269 269 269 269 268 269 268 267 267 268 268 268 268 268 268 268 268 268

GFSWCAN_850_thetae_099.txt.gz
Theta_e
292 291 291 289 290 290 290 291 292 292 292 291 291 292 293 293 294 294 294 293 295 295 295 295 296 297 298 299 300 300 299 302 303 305 303 303 302 306 310 310 309 306 308 307 308 308 310 310 311 313 313 312 311 313
293 291 290 290 290 290 290 292 292 292 291 291 292 292 293 294 294 294 295 295 294 294 296 297 298 298 298 298 299 300 300 300 301 303 302 304 304 306 308 311 307 310 309 310 309 308 309 310 311 312 311 310 311 311
292 291 290 290 289 290 291 291 292 291 291 291 292 293 293 294 294 295 296 296 296 295 295 295 295 296 297 298 298 299 300 300 300 299 302 305 306 306 308 309 308 310 310 310 310 310 311 310 311 312 311 311 311 311
291 290 290 289 289 290 291 291 291 292 292 293 293 293 294 294 295 296 296 295 296 296 294 295 296 297 297 297 298 299 299 300 300 299 300 302 304 306 308 305 306 309 310 311 312 311 310 310 310 310 310 311 310 309
289 289 288 289 290 291 292 292 293 294 294 294 294 294 294 295 295 297 297 296 296 296 297 298 298 298 299 299 299 299 300 300 301 301 301 301 303 305 305 306 308 308 310 311 311 310 310 310 309 310 310 310 310 309
288 289 291 291 292 292 293 294 295 295 295 295 295 295 295 295 297 297 298 298 297 297 296 298 299 300 300 299 301 300 299 300 301 301 301 302 303 304 303 305 308 307 307 305 308 308 308 309 309 310 309 308 308 307
290 291 292 293 294 295 296 297 297 297 297 297 296 295 295 296 297 297 298 298 298 297 297 298 297 301 301 301 300 301 301 301 301 302 301 301 301 304 302 304 306 306 306 308 308 309 308 308 307 307 308 308 307 307
292 293 294 295 296 297 299 299 299 298 298 298 296 295 296 297 297 297 298 299 297 297 298 298 296 300 301 302 302 302 302 301 301 301 301 301 303 303 302 304 305 306 307 304 305 305 305 305 305 305 305 306 306 305
294 296 297 298 299 298 299 299 299 299 298 298 296 296 297 297 297 297 298 298 297 298 298 298 298 300 301 300 301 302 302 301 301 301 301 302 302 302 305 303 302 301 301 301 301 302 302 302 301 302 301 301 302 302
297 298 299 299 299 299 299 298 299 299 298 297 296 297 296 298 297 297 298 298 298 298 299 299 300 300 301 301 300 301 301 302 302 300 303 304 303 301 298 297 297 296 296 297 297 297 297 297 296 296 297 297 299 301
299 299 299 299 299 299 299 299 299 298 297 297 297 297 297 298 297 297 297 298 298 299 298 300 301 302 302 302 302 301 302 302 303 303 304 304 303 298 294 293 293 293 294 293 293 293 293 293 293 292 293 294 296 296
298 299 299 299 299 299 299 299 299 297 297 297 298 297 297 297 298 298 299 299 300 299 300 299 302 303 302 302 301 301 303 302 305 303 304 303 295 292 291 290 290 290 289 289 289 288 289 289 288 289 290 292 293 293
299 299 299 299 299 299 299 299 299 297 297 297 298 298 298 297 299 301 301 298 296 301 302 303 301 303 303 302 300 301 303 302 304 306 299 294 291 289 288 288 287 287 287 286 286 286 285 285 286 286 287 287 288 289
299 299 299 300 299 299 298 298 298 298 299 299 299 300 299 297 299 297 299 299 298 301 302 304 303 302 301 301 301 302 300 303 304 302 294 291 289 288 287 286 285 285 285 285 284 283 283 282 282 283 283 284 284 285
299 299 300 299 299 299 298 298 298 299 295 295 296 296 295 294 294 294 295 296 295 297 300 302 301 302 301 301 301 301 302 302 296 293 291 288 287 286 286 285 284 283 284 284 282 281 280 280 281 281 281 281 281 281
299 298 298 298 298 297 298 298 298 293 290 290 290 294 294 294 293 292 293 293 293 297 300 301 300 303 302 298 302 297 301 295 291 289 287 286 285 285 285 284 283 282 282 281 281 280 279 279 278 278 278 278 278 278
297 297 297 297 296 296 297 298 291 290 290 290 289 288 291 291 290 290 290 290 293 296 301 300 301 299 301 297 294 292 288 290 288 287 285 285 284 283 284 283 282 281 281 280 279 279 278 278 278 277 277 277 277 277
298 298 299 299 297 298 298 292 290 289 289 289 288 287 287 287 288 288 289 290 293 294 294 294 294 291 288 292 288 288 288 287 286 286 284 283 283 282 282 282 281 281 280 279 279 278 278 277 276 276 276 276 276 276
297 295 295 296 296 294 292 292 289 289 289 288 288 287 287 286 286 286 287 288 289 290 289 288 286 286 284 283 283 284 284 285 286 285 283 282 282 282 282 281 280 280 280 280 279 278 277 277 276 275 275 275 275 275
295 295 295 294 295 293 292 291 290 289 289 287 287 287 286 287 285 284 284 284 285 284 283 282 281 281 281 281 282 283 283 284 285 284 283 282 282 282 281 280 280 279 278 278 277 277 277 276 276 275 275 275 275 274
294 295 294 294 293 292 292 290 290 289 289 289 288 288 286 284 283 282 282 281 281 282 282 281 280 280 280 280 281 281 282 282 282 283 283 282 282 281 281 280 279 279 278 277 277 276 276 275 275 275 275 275 275 275
296 295 293 293 292 292 291 291 290 290 289 289 289 288 287 286 284 282 281 280 280 280 280 280 280 280 279 279 280 281 281 281 281 281 281 281 281 280 280 280 279 278 277 277 276 276 276 275 275 275 275 274 274 274
293 293 292 292 292 292 292 292 293 292 291 290 289 288 287 286 285 283 281 280 280 279 280 280 280 280 279 279 280 280 280 280 280 280 279 279 279 279 279 278 278 278 277 277 277 276 276 275 275 276 275 274 274 273
292 290 291 291 291 290 291 291 291 291 290 290 288 285 285 286 284 282 281 280 279 280 279 280 280 279 278 278 278 278 278 278 279 279 278 278 277 277 277 277 277 277 277 276 276 276 276 275 275 275 274 273 272 272
289 284 288 285 291 287 285 286 287 287 287 285 285 285 285 287 283 281 281 280 278 278 279 279 278 278 277 276 276 276 277 277 277 277 277 277 277 277 276 276 276 276 276 276 275 275 274 274 274 273 273 272 272 272
280 283 284 286 286 286 288 285 284 284 283 282 282 286 286 279 278 279 280 278 277 277 277 277 277 276 275 275 275 275 276 276 276 277 277 277 278 277 276 275 275 275 275 275 275 275 274 274 274 273 273 272 272 271
279 280 284 285 287 287 283 285 285 281 281 281 281 282 279 276 277 279 278 277 276 276 276 276 276 276 275 275 274 274 274 275 275 275 275 276 276 275 275 275 274 274 274 274 274 274 274 274 273 273 272 271 271 271
283 283 277 283 283 283 278 278 278 278 279 283 282 276 276 277 278 278 277 276 276 275 275 275 275 274 274 274 273 274 274 274 274 274 274 274 274 273 272 273 273 273 273 273 273 273 273 272 272 271 271 271 270 270
282 281 280 275 280 280 280 278 278 280 279 282 275 275 278 278 277 276 276 276 277 277 276 275 275 275 274 274 272 273 275 275 275 275 273 273 272 272 271 272 272 272 272 272 272 272 272 271 271 271 271 270 270 270
283 282 280 279 274 277 280 279 278 277 278 278 276 276 276 276 276 276 276 276 275 275 274 274 274 274 274 273 273 272 272 273 273 274 272 272 271 270 270 270 270 270 270 270 270 270 271 271 271 270 270 269 269 269
284 282 280 279 278 279 279 279 279 278 278 277 277 275 274 274 275 275 274 274 275 275 274 274 273 273 273 273 273 272 272 271 271 271 271 271 270 270 270 270 269 270 269 269 269 269 270 269 269 269 269 269 268 268
283 281 279 276 279 279 280 281 280 279 279 278 277 277 277 277 275 274 274 274 274 274 274 273 273 273 272 271 271 271 271 271 271 270 270 270 269 270 270 270 270 269 269 269 269 269 269 269 269 269 268 268 269 268
280 280 279 279 279 280 281 281 281 281 281 280 278 278 277 277 275 273 273 274 274 273 273 273 272 271 271 271 271 271 271 270 270 270 270 269 269 269 269 269 269 269 269 269 269 269 269 268 268 268 268 268 268 268

GFSWCAN_850_thetae_102.txt.gz
Theta_e
292 292 293 292 292 291 289 290 290 291 291 291 291 292 291 292 293 293 293 293 293 294 294 295 295 295 295 296 298 299 298 300 300 303 303 302 301 305 306 308 309 304 302 301 304 305 307 309 311 311 312 311 311 311
291 291 292 292 292 291 290 289 290 291 292 292 292 291 291 292 293 294 294 294 294 294 294 295 296 296 297 297 298 298 299 299 300 301 302 302 303 305 306 309 305 308 305 306 306 306 307 309 310 312 311 310 310 310
289 289 291 293 293 291 290 289 290 291 292 292 292 291 291 292 293 293 294 294 294 295 294 295 294 295 295 295 297 298 299 299 299 298 299 303 304 305 305 305 305 308 307 309 308 309 310 310 311 311 310 310 310 309
290 290 290 291 292 291 290 289 289 291 291 291 291 291 291 292 293 294 294 294 295 295 295 295 295 296 296 296 296 296 298 299 300 300 299 302 302 303 305 305 305 306 307 310 311 310 310 310 310 310 310 309 309 308
290 291 290 290 292 291 290 289 290 291 291 291 292 292 293 293 293 294 294 295 295 295 295 297 297 300 300 297 298 298 299 300 300 301 300 300 301 303 304 305 307 307 306 308 310 309 308 310 309 310 309 308 308 307
290 291 291 291 290 290 289 290 290 291 292 292 293 294 294 294 294 295 296 296 296 296 296 297 297 297 299 299 298 299 298 298 300 301 300 301 301 303 304 305 306 306 306 306 306 307 307 306 307 308 307 306 306 306
290 290 290 289 288 288 290 291 291 292 293 294 295 295 295 295 295 296 297 298 298 297 296 297 295 298 299 299 299 299 300 299 299 301 300 301 301 302 301 304 304 307 307 305 303 306 304 302 302 304 305 305 305 304
289 289 289 290 290 291 292 293 294 295 295 296 296 296 295 295 295 296 298 298 297 297 297 298 294 297 301 301 301 300 300 300 301 300 300 301 301 301 302 303 301 303 302 302 302 302 301 300 302 302 302 302 302 302
288 289 290 291 292 293 294 295 296 297 297 297 297 296 296 295 297 297 297 297 297 297 297 297 294 295 300 300 301 301 301 301 300 300 299 300 299 303 303 300 297 295 296 297 299 300 299 299 298 299 298 299 300 300
291 292 293 293 294 295 297 298 298 298 298 297 296 296 296 297 297 297 297 297 297 298 298 297 297 298 300 299 300 300 300 299 301 301 300 301 302 297 295 293 293 293 293 295 296 294 294 293 292 293 294 294 296 297
293 294 295 296 298 298 298 299 299 298 298 296 297 297 297 297 297 297 296 298 297 298 297 298 299 301 301 301 301 300 301 301 301 300 301 302 302 294 291 290 290 291 291 291 291 290 290 289 289 289 291 293 294 294
297 298 298 298 298 298 299 299 298 298 296 297 297 297 297 297 297 297 298 298 297 297 297 297 299 300 301 301 300 300 302 301 303 301 300 300 292 290 289 288 288 288 288 287 287 286 287 287 287 287 288 290 291 292
298 298 298 299 299 298 299 299 299 297 297 297 298 297 297 296 296 295 299 298 293 296 300 300 297 302 302 302 300 301 302 302 302 304 295 292 289 288 287 286 286 285 286 285 285 284 284 284 285 286 286 286 287 288
298 298 298 299 299 299 299 299 297 297 298 299 298 298 298 296 295 294 297 299 297 298 301 302 301 301 300 298 296 302 299 301 297 300 292 290 288 286 286 285 284 284 284 284 283 283 283 283 283 283 283 283 284 284
300 298 299 299 299 299 298 297 298 298 298 295 295 294 294 293 294 294 295 295 295 297 300 301 300 300 299 298 300 299 301 297 293 290 289 287 286 285 285 284 283 282 282 282 282 281 281 280 281 281 281 281 281 281
299 300 299 299 298 297 297 298 297 296 290 290 289 293 293 292 290 291 292 292 294 297 300 301 297 299 296 300 299 295 296 289 288 287 286 285 284 284 284 283 282 282 281 280 280 279 279 278 279 278 278 278 278 279
298 298 298 297 297 297 296 296 296 290 289 289 287 288 290 289 288 289 289 290 293 296 300 296 298 297 298 292 291 290 285 286 287 285 285 284 283 283 283 282 281 280 280 279 279 278 278 277 277 277 277 277 277 277
296 297 297 298 298 297 295 292 289 288 289 288 286 286 286 286 286 286 288 289 293 293 293 292 291 288 284 288 283 284 285 286 285 284 283 283 282 282 281 281 281 280 279 279 278 278 277 276 276 276 276 276 276 276
296 296 297 297 298 297 292 290 288 289 288 287 287 286 285 284 284 285 287 287 288 289 286 284 283 283 281 282 282 283 284 284 284 283 283 282 282 281 281 280 280 280 279 279 278 277 276 276 275 275 275 275 275 275
297 297 295 295 297 293 291 290 289 288 287 287 286 285 284 284 283 282 284 284 284 282 282 281 279 280 281 281 282 282 283 284 284 283 282 282 282 281 280 280 279 278 278 278 277 277 276 276 275 275 275 275 275 275
294 294 294 294 292 291 291 289 289 287 288 287 286 286 283 282 281 280 280 280 280 281 280 280 280 280 280 281 281 282 282 282 282 283 282 281 281 281 281 280 279 278 278 277 277 276 276 276 276 275 275 275 275 274
294 294 292 292 291 291 291 290 289 289 289 289 288 286 285 284 282 281 280 280 279 280 280 280 279 279 279 280 280 281 281 281 281 281 281 281 281 280 280 279 279 278 277 277 276 276 276 276 276 276 276 275 275 275
293 293 292 292 292 292 290 291 292 290 287 288 288 287 285 285 283 281 280 280 280 280 280 280 279 279 279 279 280 280 280 280 280 279 279 279 279 279 278 278 278 277 277 276 276 276 276 275 275 275 275 274 274 274
292 291 291 291 290 288 291 291 290 290 289 288 287 284 284 284 282 280 280 279 278 279 279 279 279 278 278 278 278 278 278 278 278 278 277 277 277 277 277 277 277 277 276 276 276 276 275 275 274 274 274 273 272 273
290 285 288 281 290 284 279 279 281 283 281 281 281 281 284 285 279 276 277 278 278 278 277 278 278 277 276 276 276 276 277 277 277 278 277 277 276 276 276 276 276 276 276 276 275 275 274 274 274 273 273 272 272 272
277 283 282 281 282 282 282 280 278 279 277 277 277 285 284 274 274 276 278 277 277 277 277 277 276 276 275 275 275 276 275 275 276 277 276 277 276 276 276 276 275 275 275 275 275 274 274 274 273 273 273 272 272 272
276 276 284 284 286 285 280 283 282 278 276 277 276 275 272 271 272 277 277 277 276 276 276 276 276 276 275 275 275 274 274 275 275 275 275 275 275 275 275 274 274 274 274 274 274 274 274 273 273 273 273 272 271 271
282 282 277 281 281 281 273 271 270 273 273 281 279 271 271 271 275 277 276 276 275 275 275 275 275 274 274 274 274 274 274 274 274 274 274 274 273 273 273 273 273 273 273 273 273 273 273 273 272 272 271 271 271 270
280 280 280 271 278 279 279 271 274 279 279 280 270 270 277 276 276 276 276 276 275 275 275 275 274 274 274 273 272 274 274 275 274 274 273 273 272 272 272 272 272 272 272 272 272 272 272 271 271 271 271 270 270 270
282 280 278 276 270 274 278 277 276 278 279 277 276 275 275 276 276 276 276 276 276 275 275 275 274 274 274 274 273 272 273 274 274 273 273 272 271 270 270 270 270 270 270 270 270 271 271 271 270 270 270 269 269 269
281 280 278 278 276 278 278 277 277 276 276 275 275 274 274 274 275 275 275 275 274 275 274 274 274 273 273 273 273 272 271 271 271 271 271 270 270 270 270 270 270 269 269 269 269 269 270 270 269 269 269 269 269 268
280 279 277 274 278 278 280 279 278 278 277 276 275 275 275 275 274 273 274 274 274 274 274 274 273 272 272 271 271 271 271 271 271 270 270 270 269 269 269 269 269 269 269 269 269 269 269 269 269 268 268 268 268 268
279 279 279 279 279 279 280 281 281 280 279 278 278 277 276 275 273 273 273 273 274 274 273 273 273 272 272 271 271 271 271 270 270 270 270 270 269 269 269 269 269 269 269 269 269 268 268 268 269 268 268 268 268 268

GFSWCAN_850_thetae_105.txt.gz
Theta_e
292 291 292 293 292 293 292 291 290 292 292 291 291 292 293 292 292 293 293 293 293 293 293 294 294 295 295 294 295 297 296 297 297 299 303 303 300 302 303 305 306 305 301 298 301 303 306 307 310 310 310 310 312 310
292 291 291 292 292 293 293 291 290 290 290 290 292 292 292 291 292 293 293 293 293 293 293 294 294 295 295 295 296 297 298 298 300 300 300 299 300 303 305 305 304 307 304 304 303 303 304 308 310 311 310 309 310 309
292 292 293 293 292 292 292 292 291 289 289 291 292 292 292 291 291 293 294 294 294 294 294 294 294 294 294 294 296 297 297 298 298 299 298 299 302 301 305 304 306 305 305 307 305 305 309 310 310 311 310 309 309 309
292 291 290 290 291 292 292 292 291 290 289 291 292 292 292 291 291 292 293 293 294 294 295 295 295 295 295 295 295 295 295 296 299 299 298 298 300 301 302 304 305 304 303 309 309 309 309 310 309 309 310 309 307 306
291 289 289 289 289 290 294 292 291 290 289 290 291 291 291 291 291 292 293 293 294 294 294 295 295 296 296 299 296 296 295 295 297 299 300 299 299 301 302 303 306 304 304 307 307 305 308 309 307 308 308 306 305 305
290 290 290 290 290 291 291 292 291 290 289 290 291 291 291 292 292 293 294 294 294 294 295 294 296 297 298 298 297 297 297 298 299 300 300 300 301 302 301 305 305 305 305 301 300 303 303 303 304 304 305 304 304 304
290 290 290 290 291 291 291 291 291 289 290 290 291 292 293 294 294 295 295 297 296 295 296 296 294 296 297 297 298 298 298 297 298 298 299 300 300 300 301 302 301 304 304 302 301 300 300 299 299 300 302 303 302 302
290 289 290 291 291 291 290 290 289 289 290 291 292 293 294 295 295 294 295 296 297 296 296 298 294 295 300 300 299 299 299 299 299 299 299 299 300 299 302 301 297 297 299 298 297 297 297 297 297 298 299 300 300 300
289 289 290 290 290 289 289 289 290 290 291 293 294 295 296 295 296 295 295 296 297 297 297 297 293 294 300 299 300 300 300 299 299 300 299 299 298 302 300 297 294 293 293 294 296 297 295 295 293 294 295 296 296 296
288 288 288 289 289 289 290 291 291 293 294 295 295 296 296 295 295 296 297 296 296 297 297 296 296 294 300 299 299 300 300 298 301 300 299 300 301 294 292 291 291 291 291 292 294 291 289 289 289 290 291 293 293 294
288 288 288 288 289 290 291 292 294 294 295 295 296 296 296 296 297 297 296 297 297 296 296 296 297 297 300 300 300 299 300 298 299 298 300 302 299 293 290 289 289 289 289 289 288 287 287 287 286 287 289 291 292 292
289 290 291 292 292 293 294 295 296 295 296 296 296 297 297 297 297 296 297 297 298 296 296 296 297 298 301 301 300 299 300 300 301 299 301 299 290 288 288 287 287 287 287 287 286 285 284 285 285 285 286 287 288 289
292 292 293 294 295 295 296 297 297 297 297 297 298 297 296 296 296 294 296 298 297 295 297 298 300 300 300 300 300 300 302 303 301 299 294 291 289 287 286 285 284 285 285 284 284 283 283 283 284 284 284 285 285 286
295 296 296 297 298 298 298 298 298 297 297 298 297 298 295 294 295 292 295 296 296 298 298 299 299 300 300 299 299 299 300 301 302 298 290 288 287 286 285 284 283 283 283 282 282 281 282 282 282 282 282 283 283 283
297 298 298 298 298 298 298 298 297 297 298 295 295 294 290 292 293 294 295 295 295 296 299 300 299 300 296 297 297 299 300 293 291 289 286 286 286 285 284 283 283 282 281 280 280 280 280 279 280 280 280 280 281 281
298 298 298 298 298 298 298 297 297 296 291 290 289 291 291 291 290 291 291 292 294 296 299 300 299 298 296 299 297 291 294 290 288 286 285 285 284 284 283 282 281 281 280 280 279 279 278 278 278 278 278 278 278 278
298 299 298 298 297 297 297 297 297 290 289 288 286 287 288 288 287 287 288 289 292 294 299 297 299 295 295 292 290 288 283 283 285 285 284 284 283 282 282 282 281 281 280 279 279 278 277 277 277 277 277 277 277 277
299 298 298 297 297 296 294 294 289 288 288 287 285 286 284 284 285 285 286 288 292 293 292 290 288 286 282 287 282 280 284 285 285 284 283 282 282 282 281 281 280 280 280 279 278 277 276 276 276 276 276 276 276 276
296 297 297 296 297 297 293 289 288 288 287 286 286 285 284 283 283 284 286 286 287 288 286 283 279 279 278 281 281 282 283 284 284 283 282 282 281 281 280 280 279 279 279 278 278 277 276 276 275 275 275 275 275 275
296 296 297 297 297 292 290 289 288 287 286 286 285 284 283 282 282 282 284 284 284 281 280 279 278 279 280 281 282 282 283 284 283 283 282 282 282 281 280 280 279 278 278 277 277 277 276 276 275 275 275 275 275 275
298 297 296 295 292 290 289 289 287 287 286 285 284 284 283 282 280 280 280 280 280 280 279 279 279 280 280 281 281 282 282 283 283 282 282 281 281 281 280 279 278 278 277 277 276 276 276 276 275 275 275 275 274 274
294 293 294 294 291 290 289 289 288 288 288 287 287 285 284 282 281 280 280 279 279 279 280 279 279 279 280 280 280 281 281 281 281 281 281 281 280 280 279 279 278 278 277 276 276 276 276 275 275 275 275 274 274 273
292 292 292 291 291 290 289 291 290 289 285 287 287 285 283 283 282 280 279 279 279 279 280 279 279 279 279 279 279 280 280 280 280 279 279 279 279 278 278 278 277 277 277 277 277 277 277 276 275 275 275 274 274 273
292 291 291 290 290 287 291 290 290 289 288 285 286 284 282 282 281 279 279 278 278 279 279 279 279 278 278 278 278 278 278 278 278 278 277 277 277 277 277 277 277 277 276 276 276 276 276 275 275 274 274 274 273 273
291 285 288 280 288 283 278 276 278 282 279 280 279 281 282 283 276 275 274 277 277 278 278 278 278 277 276 276 276 276 276 277 277 277 277 276 276 276 276 276 276 276 275 275 275 275 275 274 274 274 273 273 272 272
278 283 281 280 280 281 278 278 276 276 275 276 278 282 281 272 271 273 276 277 277 277 277 277 276 276 275 275 275 276 276 276 276 277 276 276 276 276 275 275 275 275 275 274 274 274 274 274 273 273 273 272 272 272
275 276 283 283 284 283 278 281 281 277 274 276 276 270 270 268 269 275 276 277 277 276 276 276 276 275 275 275 275 275 275 275 275 275 275 275 275 275 274 274 274 274 274 274 274 274 273 273 273 273 272 272 272 271
281 281 277 278 279 279 271 269 269 272 272 279 276 269 269 270 274 276 276 276 276 275 275 275 275 274 274 274 274 274 274 274 274 274 274 274 273 273 273 273 273 273 273 273 273 273 273 273 273 272 272 271 271 270
280 279 279 270 277 277 275 270 273 277 278 278 268 268 276 275 276 276 275 275 275 275 275 275 275 274 274 274 273 274 274 274 274 274 274 273 272 272 272 272 271 272 272 272 272 272 272 271 271 271 271 270 270 270
280 279 277 275 270 272 276 275 276 277 277 276 275 275 275 275 275 275 275 275 275 275 275 275 274 274 274 273 273 272 273 273 274 273 272 272 271 271 270 270 270 270 270 270 270 271 271 271 271 270 270 269 269 269
279 278 278 277 274 275 275 275 275 275 275 275 275 274 274 274 274 275 275 275 275 274 274 274 274 274 273 273 273 272 272 271 271 271 271 270 270 270 270 270 269 269 269 269 269 269 270 270 270 269 269 269 268 268
279 278 276 272 277 276 278 278 276 276 276 275 274 274 274 274 273 273 274 274 274 274 274 274 274 273 272 272 271 271 271 271 271 271 270 270 270 269 269 269 269 269 269 269 269 269 269 269 269 269 268 268 268 268
278 279 279 279 277 277 279 280 279 278 278 277 276 276 275 275 273 273 273 274 273 273 273 274 273 272 271 271 271 271 271 271 270 270 270 270 269 269 269 269 269 269 268 268 268 268 268 268 268 268 268 268 268 267

GFSWCAN_850_thetae_108.txt.gz
Theta_e
294 293 294 294 294 294 294 293 291 290 292 291 291 292 293 293 291 292 293 293 292 292 292 293 294 295 295 294 293 294 294 295 297 296 299 301 302 301 302 301 304 306 304 299 301 302 304 304 308 310 309 310 311 311
293 293 294 294 293 294 294 293 292 291 291 292 291 291 292 293 293 291 293 293 293 293 292 293 293 294 293 293 293 295 295 297 298 296 298 299 299 302 301 304 303 303 305 304 303 302 302 306 309 310 310 308 309 308
291 293 293 293 293 293 293 293 293 291 290 290 290 290 291 292 292 292 292 293 293 293 293 293 293 294 294 293 293 295 296 297 298 298 296 296 299 299 301 302 305 304 301 305 304 305 306 308 309 309 308 309 309 310
290 292 293 292 292 292 293 292 293 292 291 290 290 291 292 292 292 292 292 293 294 293 294 294 294 294 295 295 295 294 295 297 298 298 297 297 299 299 300 301 302 303 302 305 306 306 308 308 308 308 306 306 305 304
291 292 292 292 292 293 292 292 293 292 291 289 290 291 292 293 292 291 292 292 293 293 294 294 294 295 295 296 297 296 294 294 294 296 299 299 298 299 300 303 304 304 304 305 307 304 306 304 304 306 305 304 303 301
292 292 292 292 291 291 292 292 293 292 291 290 290 291 292 292 292 291 292 292 293 293 295 293 295 295 296 297 298 296 295 294 295 297 298 299 300 301 299 301 303 300 300 299 298 299 298 299 298 300 301 302 302 301
291 292 292 291 289 289 291 290 293 292 291 289 289 290 291 291 292 292 294 295 295 293 295 294 294 296 297 296 297 296 296 296 297 298 297 298 299 299 298 301 299 299 298 297 297 300 297 296 295 296 299 299 298 298
291 292 291 289 289 290 290 291 292 292 291 289 290 290 291 292 293 293 293 296 295 294 295 293 294 294 299 298 297 297 297 297 297 297 298 298 299 298 299 299 295 295 296 296 296 295 294 294 296 294 296 297 296 296
291 291 290 290 290 291 291 291 291 291 290 289 290 291 292 293 294 294 294 294 294 295 296 296 293 292 298 298 299 298 298 297 298 298 297 298 298 300 297 295 293 291 291 292 295 294 292 291 290 290 291 292 292 293
290 290 290 290 291 291 291 291 291 290 288 290 292 293 294 295 295 295 295 295 295 296 297 294 295 292 298 297 297 298 299 294 297 298 298 300 299 293 291 290 290 289 289 290 292 290 288 286 286 287 288 289 290 291
290 290 289 289 290 290 290 289 289 290 291 293 294 295 295 295 296 296 296 296 296 296 296 296 296 294 298 298 300 298 300 298 299 297 299 300 298 291 289 288 288 287 288 288 287 286 286 285 285 284 284 287 288 290
289 289 289 288 289 290 289 290 291 292 293 294 296 296 297 296 296 296 296 297 297 296 295 295 296 296 299 300 299 299 299 298 300 297 300 298 289 288 287 286 285 286 286 285 285 285 284 284 284 285 285 285 286 287
288 289 289 289 289 288 288 290 292 292 294 295 297 297 296 295 297 293 295 298 297 295 295 296 298 298 299 300 299 300 301 300 300 298 293 290 288 286 286 285 284 284 284 284 283 283 282 282 283 283 283 284 284 285
288 288 289 290 290 290 290 292 293 294 296 297 297 296 295 294 295 292 296 295 295 297 297 297 299 299 299 299 299 299 300 299 301 294 290 287 287 285 284 284 283 283 282 281 281 281 280 280 280 280 281 281 282 282
290 291 291 292 293 293 294 294 295 294 296 295 295 292 295 291 293 294 295 295 295 296 297 298 298 299 298 299 298 298 299 292 290 289 286 286 285 284 283 283 282 281 280 280 279 279 278 278 278 279 279 279 279 279
293 293 293 294 295 296 296 296 295 296 291 290 289 291 291 289 288 290 291 291 293 295 297 298 299 298 297 298 297 292 293 291 286 285 285 284 283 283 282 282 281 280 279 279 278 277 277 277 277 277 277 278 278 277
296 298 298 298 297 296 296 296 297 290 289 288 285 286 287 286 285 286 287 288 291 293 298 296 297 294 291 291 290 286 283 284 285 284 284 283 282 282 281 281 281 280 279 279 278 277 277 276 276 276 277 276 276 276
298 298 297 297 296 295 296 293 289 288 287 286 284 284 283 283 284 284 285 287 290 292 291 288 288 286 281 288 283 281 283 284 284 283 282 282 281 281 280 280 280 280 279 279 278 277 276 276 276 275 275 275 275 275
297 298 297 297 296 296 294 289 288 287 286 285 284 284 283 282 282 283 285 285 287 287 286 283 281 278 277 280 280 282 283 283 283 282 282 282 281 281 280 279 279 278 278 278 277 277 276 276 275 275 274 274 275 275
296 296 296 296 296 293 289 287 288 287 285 285 284 283 282 282 282 282 284 285 285 281 280 279 277 279 280 281 282 282 283 284 283 282 282 282 281 280 280 279 278 278 277 277 277 276 276 275 275 275 275 275 274 275
296 295 296 297 293 289 289 288 287 286 285 284 283 283 282 281 280 280 280 280 280 279 278 279 279 280 280 281 281 282 282 282 283 282 282 281 281 280 280 279 278 277 277 276 276 276 276 276 276 275 275 275 275 274
296 295 296 295 290 289 288 288 287 287 287 286 285 284 283 281 280 279 280 279 279 279 279 279 279 279 280 280 280 280 280 281 281 281 280 280 280 279 279 278 277 277 277 276 276 276 276 276 275 275 275 274 274 273
297 296 293 292 290 289 288 289 289 288 283 286 286 283 280 282 281 280 279 279 279 279 279 279 279 279 279 279 279 279 279 279 279 279 279 278 278 278 278 277 277 276 276 276 276 276 276 275 275 275 274 274 274 273
292 291 290 290 290 286 290 289 289 288 287 283 282 282 281 281 280 278 278 278 278 279 279 278 278 278 278 278 278 278 278 277 278 277 277 277 277 277 276 276 276 276 276 275 275 275 275 274 274 274 273 273 273 273
291 285 287 279 286 282 277 274 277 281 278 279 281 280 280 281 274 273 271 276 278 278 278 278 277 277 277 276 276 276 276 276 276 277 276 276 276 276 276 276 275 275 275 275 275 274 274 274 274 273 273 272 272 272
279 282 280 279 279 280 278 278 275 276 275 276 277 278 279 270 270 271 275 277 277 277 277 276 276 276 276 275 275 276 276 276 276 276 276 275 275 275 275 275 275 275 274 274 274 274 274 273 273 273 273 272 272 272
276 276 281 281 282 282 277 280 280 276 274 275 273 269 268 268 268 273 276 277 277 277 276 276 275 275 275 275 275 275 275 275 275 275 275 275 274 274 274 274 274 274 273 273 273 273 273 273 273 272 272 272 272 271
280 280 277 278 278 278 270 269 269 272 271 277 276 268 269 270 271 276 276 276 276 276 276 275 275 274 274 273 274 274 274 274 274 274 273 273 273 273 273 273 272 272 272 273 273 273 273 273 272 272 272 271 271 270
279 278 279 270 275 275 273 268 272 276 276 277 267 266 274 275 275 276 276 276 275 275 275 275 275 274 274 273 273 274 274 274 273 273 273 273 272 272 271 271 271 271 271 271 271 272 272 271 271 271 271 270 270 270
278 278 276 274 268 271 274 274 275 276 276 275 274 274 274 274 275 275 275 275 275 275 275 275 275 274 274 273 272 272 272 273 273 273 272 272 271 270 270 270 270 270 270 270 270 270 271 271 270 270 270 270 269 269
278 278 276 275 272 274 274 274 275 275 275 275 275 274 274 274 274 275 274 275 275 275 274 274 274 274 273 273 272 272 272 272 271 271 271 271 270 270 270 270 270 269 269 269 269 269 269 269 269 269 269 269 269 268
278 277 275 271 275 275 276 277 276 275 275 275 274 274 274 274 274 274 274 274 274 274 274 274 274 273 273 272 272 272 272 271 271 271 271 271 270 270 270 270 269 269 269 269 269 269 269 269 269 269 268 268 268 268
278 277 277 277 276 275 277 278 277 276 276 276 275 275 275 275 274 274 274 274 274 273 274 274 274 273 272 272 272 271 271 271 271 271 271 270 270 270 270 270 269 269 269 269 269 269 269 269 268 268 268 268 268 267

GFSWCAN_850_thetae_111.txt.gz
Theta_e
290 291 292 294 294 295 295 294 293 294 293 291 291 292 292 293 293 292 291 293 293 293 292 292 293 292 293 294 295 294 294 296 297 299 299 300 301 301 302 301 303 305 305 304 304 305 304 304 308 311 310 310 311 311
289 290 291 294 294 294 294 294 294 293 291 291 290 291 292 293 293 293 291 293 293 293 292 292 293 293 292 293 294 293 293 295 297 298 298 299 300 301 300 304 302 305 305 305 304 304 303 307 308 308 308 309 309 310
289 290 291 294 294 294 294 294 294 292 291 291 292 290 291 292 293 293 291 292 293 293 293 292 293 293 293 293 293 294 295 295 297 296 297 296 298 300 300 300 301 302 303 306 305 306 306 306 307 306 306 307 309 310
288 289 290 291 294 294 293 295 294 292 291 291 290 292 291 291 293 293 292 292 292 293 293 293 293 294 294 294 294 293 293 295 296 295 296 297 298 299 300 300 301 301 302 304 304 305 305 301 304 304 303 308 305 304
288 288 289 290 294 293 294 293 293 293 292 291 291 290 290 291 292 292 292 292 292 293 293 293 293 294 295 294 294 295 294 294 294 294 296 296 298 299 300 301 304 302 301 301 304 298 301 297 298 300 300 300 300 302
288 288 289 290 293 293 292 292 293 293 292 291 289 290 291 292 293 292 293 292 292 292 293 294 294 294 295 296 296 295 295 294 294 294 295 296 297 299 300 300 302 300 297 296 296 297 295 297 297 297 297 297 299 301
288 289 289 290 293 292 292 292 293 293 293 291 289 290 292 292 293 292 292 294 293 292 293 295 295 295 296 296 296 295 294 294 294 295 296 298 298 298 299 299 298 297 297 295 296 297 295 293 293 296 295 296 296 296
289 289 290 291 292 292 293 293 293 293 292 291 289 290 292 292 292 292 293 295 294 293 293 296 295 295 297 297 296 295 294 295 296 297 297 298 298 298 300 297 295 293 294 293 293 292 291 291 292 291 293 293 294 293
290 291 293 292 292 289 290 291 292 293 292 290 289 290 291 291 292 292 292 292 292 294 295 295 296 295 297 297 298 297 296 297 297 298 297 298 299 299 297 295 292 291 289 289 291 291 288 287 288 288 289 290 290 290
292 291 292 291 289 289 290 290 291 292 291 289 290 291 292 293 292 293 294 295 294 294 294 296 295 295 297 297 298 298 297 299 299 299 298 299 299 292 290 289 288 288 288 288 288 288 286 286 285 286 285 286 287 288
291 291 291 290 289 290 291 291 292 291 290 290 292 293 294 294 295 295 295 296 295 296 295 296 295 295 297 298 300 298 299 298 299 298 299 300 297 290 287 287 286 286 286 285 284 283 283 283 283 283 285 286 287 287
291 290 290 290 291 292 292 292 291 290 290 291 294 294 295 296 296 296 296 296 296 297 294 295 295 295 297 299 299 298 300 299 299 297 300 298 289 287 286 285 284 284 284 284 283 282 282 283 282 281 283 284 285 285
290 290 289 289 290 290 290 290 290 290 291 292 295 296 296 295 297 293 296 298 297 295 294 295 296 296 296 299 299 300 301 299 299 300 296 290 288 286 285 284 283 282 282 282 282 282 281 281 281 282 282 281 282 282
290 290 289 289 290 290 290 290 290 292 293 295 296 295 294 293 294 294 296 297 294 296 295 296 297 298 297 300 299 301 299 299 300 296 292 288 287 285 284 283 283 282 281 280 280 280 280 280 280 280 280 281 281 281
289 289 289 289 289 288 289 290 293 292 293 295 295 293 293 291 292 294 294 294 294 296 297 297 298 298 299 299 300 299 300 294 291 290 287 286 285 284 283 282 281 281 280 280 279 279 278 278 278 278 279 279 279 279
289 289 289 289 289 289 289 291 292 293 293 290 289 291 291 290 289 289 291 291 292 294 296 297 299 298 298 298 298 294 295 293 288 286 285 284 283 283 282 281 281 280 280 279 279 278 277 277 278 277 277 277 277 277
289 290 290 291 291 292 292 293 293 291 289 287 284 285 286 286 285 285 287 288 290 293 298 297 299 296 293 292 290 286 286 286 285 283 283 282 282 281 281 280 280 280 279 278 277 276 276 276 275 275 276 276 276 276
291 292 292 293 293 293 293 294 290 287 285 285 283 282 282 283 283 284 285 287 289 291 291 290 288 289 287 291 285 283 283 283 284 283 282 281 281 280 280 279 279 279 278 278 277 276 276 275 275 275 275 274 274 275
295 296 294 294 294 295 293 289 288 286 285 284 283 283 282 282 282 283 285 285 286 287 286 284 282 281 280 280 281 282 283 283 283 282 282 281 281 280 280 279 278 278 277 277 276 276 275 275 275 275 275 274 275 275
295 294 294 295 296 293 288 287 287 286 284 284 283 283 282 281 282 282 284 285 285 282 280 279 279 278 280 280 281 282 283 283 283 282 282 281 281 280 279 279 278 277 277 276 276 276 275 275 275 275 275 275 275 274
296 295 295 296 292 289 288 287 286 285 284 283 283 283 281 281 280 280 280 281 280 278 278 278 278 279 280 281 281 281 282 282 282 282 281 281 280 280 279 278 277 277 276 276 276 276 276 276 275 275 275 275 274 274
296 297 297 292 289 288 288 287 286 286 285 285 284 283 282 280 279 279 280 279 279 279 279 279 279 280 280 280 280 280 280 280 280 280 280 280 279 279 278 277 277 277 276 276 276 276 276 275 275 275 274 274 273 273
295 294 292 291 290 289 287 289 288 287 283 284 284 282 280 281 280 279 278 278 279 279 279 279 279 279 279 279 279 279 279 279 279 279 278 278 278 277 277 277 276 276 276 276 276 275 275 275 274 274 274 273 273 273
296 293 290 290 289 285 289 288 288 286 286 283 283 281 279 280 279 278 278 277 277 278 278 278 278 278 278 278 278 278 278 277 277 277 277 276 277 276 276 276 276 276 275 275 275 275 274 274 274 273 273 273 272 272
293 286 287 279 286 282 277 275 278 281 278 278 281 281 279 280 276 274 275 276 277 278 278 278 277 277 277 277 276 276 276 277 276 277 276 276 276 275 275 275 275 275 275 274 274 274 274 274 273 273 273 272 272 271
280 281 281 279 278 280 278 278 275 276 276 275 277 277 277 273 272 273 276 277 278 278 277 276 277 276 276 276 276 276 276 276 276 276 276 275 275 275 275 274 274 274 274 274 274 273 273 273 273 272 272 272 272 272
277 276 280 281 281 281 277 279 280 277 275 276 275 271 271 271 271 273 276 277 277 277 276 276 276 276 276 275 275 275 275 275 275 275 275 274 274 274 274 274 274 273 273 273 273 273 273 273 273 272 272 272 271 271
279 280 277 277 277 278 271 270 270 273 273 276 275 270 272 272 273 275 276 277 277 277 276 276 276 275 275 275 275 275 274 274 274 274 273 273 273 272 272 272 272 272 272 272 272 272 273 273 272 272 272 271 271 271
278 278 278 270 274 273 272 269 272 275 275 276 269 268 272 274 274 276 276 276 276 276 276 275 275 274 274 273 273 274 274 274 273 273 273 273 272 271 271 271 271 271 271 271 271 271 271 271 271 271 271 270 270 270
277 277 274 272 267 270 272 273 274 275 275 275 274 273 274 274 275 276 276 275 275 275 275 275 275 274 274 273 272 273 273 273 272 272 272 271 271 271 270 270 270 270 270 270 270 270 270 270 270 270 270 270 269 269
277 277 275 273 271 274 274 274 274 275 275 274 275 274 273 274 274 274 274 274 275 275 275 275 274 274 273 273 272 272 272 272 271 271 271 271 270 270 270 270 270 270 269 269 269 270 269 269 269 269 269 269 269 268
277 276 273 269 273 274 275 276 275 275 275 275 274 274 274 274 273 274 274 274 274 274 274 274 274 273 273 273 272 272 272 271 271 271 271 271 270 270 270 270 270 269 269 269 269 269 269 269 269 269 269 268 268 268
276 276 275 275 275 274 276 276 276 275 275 275 274 275 274 275 274 275 275 275 274 274 274 274 274 273 273 272 272 272 271 271 271 271 271 271 270 270 270 270 270 269 269 269 269 269 269 269 268 268 268 268 268 267

GFSWCAN_850_thetae_114.txt.gz
Theta_e
291 291 292 293 294 296 297 297 296 296 295 293 292 291 291 292 294 294 294 291 293 294 294 293 293 294 294 294 296 296 297 298 299 301 301 301 302 302 303 302 304 306 307 307 306 306 305 306 308 311 310 311 312 312
288 289 291 292 293 294 297 296 296 295 294 294 291 291 292 292 294 294 294 292 292 293 295 293 293 294 294 294 295 296 296 296 297 300 300 300 301 301 302 304 304 306 305 307 306 306 306 306 307 308 309 310 311 311
289 288 289 290 291 293 294 295 295 294 294 293 291 290 292 292 294 293 294 292 292 293 293 294 294 294 293 293 294 295 295 296 297 297 298 298 298 300 301 302 302 302 302 305 306 307 305 301 304 305 305 307 308 309
288 289 289 290 291 291 294 294 295 294 294 291 291 291 291 292 293 293 293 292 292 293 295 295 294 293 293 294 294 294 295 296 296 296 297 299 299 299 301 299 300 301 301 302 304 302 300 298 297 300 301 300 300 301
288 288 288 289 290 292 294 295 295 294 293 291 291 292 291 291 292 293 293 293 293 293 295 295 294 295 295 295 295 295 295 295 295 296 297 298 298 299 300 301 302 301 300 300 302 297 298 295 295 297 299 297 298 298
288 288 288 288 289 290 294 294 295 294 292 291 291 291 292 291 292 293 293 293 292 293 294 296 296 295 295 296 295 296 296 296 295 295 295 297 297 299 301 301 301 298 297 295 295 296 294 295 294 295 296 296 296 295
288 288 288 288 289 290 294 293 294 293 292 291 290 290 291 291 292 293 294 293 292 292 293 295 297 297 296 296 296 295 295 295 295 295 297 298 299 299 300 300 299 296 295 294 294 296 295 292 292 293 294 294 295 292
288 288 288 288 289 291 294 293 293 293 292 291 290 290 291 292 292 292 292 294 293 293 293 295 297 297 297 298 297 296 295 295 296 297 298 299 299 299 300 299 296 294 293 292 293 291 290 290 291 291 292 293 293 292
288 288 288 289 290 292 293 293 293 293 292 290 290 291 292 292 293 293 293 292 294 293 295 295 298 299 297 298 298 296 296 297 298 299 299 299 300 300 298 297 294 291 290 290 292 290 289 288 289 289 289 290 291 290
288 288 289 289 290 292 292 293 293 293 291 290 291 291 291 292 292 292 293 293 293 294 293 295 297 299 298 298 299 299 297 300 301 300 299 300 300 293 291 290 290 289 288 288 290 289 287 286 286 286 286 286 286 287
289 289 290 290 293 293 293 293 293 292 291 290 291 291 292 291 292 293 294 296 295 296 294 295 296 298 298 299 300 300 301 301 302 301 301 301 300 291 289 288 288 287 286 285 285 284 284 283 283 284 284 284 284 285
290 292 293 291 289 290 291 291 292 291 291 290 291 293 294 293 294 297 298 297 297 298 298 296 296 297 298 299 300 299 300 301 301 300 301 302 292 289 288 287 286 285 284 283 282 282 281 280 280 281 281 282 283 284
292 291 290 289 290 291 291 292 292 291 290 293 294 295 295 296 298 298 297 299 300 298 297 296 297 297 297 298 299 301 303 303 301 302 301 294 289 288 287 286 285 283 282 281 280 280 280 280 280 281 282 282 282 282
291 290 290 290 291 291 292 292 292 290 292 293 294 298 298 297 298 298 299 301 297 297 297 297 297 298 298 300 301 302 301 301 303 301 297 292 288 286 285 284 283 281 280 280 279 279 279 279 279 279 279 279 279 280
290 290 291 291 292 292 292 291 291 290 292 293 295 298 297 295 294 294 295 295 294 296 298 298 299 298 301 300 302 302 302 300 297 295 290 288 286 285 284 282 281 280 279 279 278 278 278 278 278 278 279 278 278 278
290 290 290 290 290 290 290 291 291 291 293 290 289 294 293 295 294 293 294 293 292 294 296 297 300 300 301 301 301 299 299 299 293 290 287 286 284 283 282 281 281 280 279 279 278 277 277 277 277 277 277 277 277 277
289 290 289 289 290 290 290 292 293 292 289 288 289 286 288 291 292 289 289 288 291 293 300 299 301 300 297 298 295 292 294 291 288 286 285 283 283 281 280 280 280 280 279 278 278 277 277 276 276 276 276 276 276 276
290 289 289 289 290 290 291 293 291 288 287 287 288 285 284 283 286 286 285 287 290 293 295 295 292 295 296 297 293 288 287 286 285 284 283 281 281 280 280 279 279 278 278 278 277 277 277 276 276 275 276 276 275 275
290 289 290 289 290 292 292 290 289 288 286 285 284 283 284 283 282 284 285 285 287 287 288 289 290 289 288 285 286 285 285 285 284 283 281 281 281 280 280 279 279 278 277 276 276 276 275 276 275 274 274 274 274 273
290 291 291 292 293 293 289 288 288 287 288 285 284 284 284 283 282 282 283 284 284 284 284 285 284 282 283 282 282 283 283 283 284 283 282 280 280 280 279 278 277 277 276 276 276 275 275 274 273 273 273 273 273 273
293 291 292 293 293 289 288 287 287 286 285 285 284 284 283 282 283 283 283 282 283 282 283 281 281 280 280 281 281 281 282 282 282 283 283 281 279 279 278 277 277 276 276 276 275 275 275 274 274 275 274 273 273 272
293 293 294 292 289 288 288 287 287 286 287 286 286 285 285 285 284 282 281 283 282 280 281 280 280 279 279 280 280 280 280 281 281 281 280 280 279 278 278 277 277 276 276 275 275 275 274 273 274 274 273 273 272 272
294 292 291 290 289 289 288 288 289 288 288 287 286 285 285 284 282 281 282 281 280 279 278 278 279 279 279 279 279 279 279 279 278 278 277 277 277 277 276 276 276 276 276 275 274 274 274 274 274 273 273 272 272 271
296 294 291 290 290 289 288 289 288 288 287 287 287 285 284 283 281 282 282 280 279 279 278 278 278 278 278 278 278 278 278 277 277 277 276 277 276 276 275 275 275 274 274 274 274 274 273 273 273 272 273 272 272 271
293 287 287 287 286 288 288 287 287 287 287 286 285 285 284 282 283 282 282 279 279 278 277 277 277 278 278 276 276 277 277 276 276 276 276 275 275 275 275 274 274 275 274 274 274 273 273 273 273 272 272 271 271 271
287 282 286 286 286 288 287 287 286 286 285 285 284 281 281 282 283 283 281 279 279 277 278 277 277 277 276 276 276 275 276 276 276 275 276 276 275 274 274 274 274 273 274 274 273 273 273 272 272 272 271 272 272 271
286 284 282 281 283 283 284 283 283 285 285 285 284 281 282 284 283 280 277 277 278 278 277 277 277 277 276 276 276 276 276 276 276 275 275 275 274 274 274 273 273 273 273 273 273 273 272 272 272 272 272 271 271 271
281 281 283 279 279 279 281 282 283 284 283 280 281 282 283 283 281 278 278 277 278 277 277 277 277 276 276 276 276 276 275 275 275 274 274 273 273 273 272 272 272 272 272 272 272 272 272 272 272 272 271 271 271 271
279 278 279 275 276 276 276 279 279 278 276 278 280 278 277 274 273 275 277 277 277 277 277 277 276 275 274 274 274 275 275 274 273 273 273 272 271 272 271 271 271 271 271 271 271 271 271 271 271 271 271 270 270 270
277 277 276 274 275 277 275 273 275 274 274 274 274 273 273 273 275 277 277 277 276 276 276 275 275 275 274 274 274 274 274 273 273 272 272 271 271 271 271 271 270 270 270 270 270 270 270 270 270 270 270 270 269 269
276 276 276 276 276 274 273 274 274 275 274 274 274 274 274 274 275 276 276 276 276 275 276 275 275 275 274 274 273 273 273 272 272 272 271 271 271 271 270 270 270 270 270 270 269 269 269 270 269 269 269 269 269 268
276 276 276 276 275 274 275 275 275 275 275 276 274 274 274 274 275 274 275 275 275 275 275 275 275 274 274 273 273 272 272 272 272 271 271 271 271 270 270 270 270 270 269 269 269 269 269 269 269 269 269 268 268 268
275 275 275 275 275 275 275 275 276 275 275 276 275 275 275 276 275 275 275 275 275 275 275 275 275 274 274 273 272 272 272 272 271 271 271 271 271 270 270 270 270 269 269 269 269 269 269 269 268 268 268 268 268 267

GFSWCAN_850_thetae_120.txt.gz
Theta_e
291 293 295 296 297 297 298 299 299 297 297 297 297 297 294 294 294 294 296 296 297 297 297 298 297 298 298 298 299 300 300 300 300 302 302 303 304 303 303 303 305 305 306 307 307 308 309 301 304 306 305 304 303 301
290 291 294 294 295 296 297 297 297 297 297 297 297 295 293 293 293 294 295 295 296 297 298 298 298 298 297 297 297 299 299 300 299 300 303 302 303 303 302 303 305 306 305 308 307 306 302 299 298 297 299 300 300 298
289 290 291 293 293 294 295 298 297 297 297 297 297 294 293 293 294 293 295 296 296 296 296 296 296 296 296 296 297 297 298 298 299 300 300 301 301 301 302 303 303 302 303 304 303 303 300 298 297 296 296 297 298 300
289 289 290 291 292 293 293 294 297 297 297 297 296 294 293 293 293 292 294 296 296 296 297 298 297 297 297 297 296 296 296 298 299 299 299 300 301 300 302 302 303 304 303 302 303 301 299 299 296 295 295 295 296 298
289 288 289 290 290 291 293 294 295 296 298 296 296 294 292 292 292 292 294 295 296 296 298 297 298 298 297 296 297 297 297 297 297 298 299 299 299 300 301 302 304 303 302 301 300 298 297 298 296 294 295 294 294 295
289 289 288 288 288 289 290 293 294 294 296 296 295 294 292 292 292 294 295 295 295 296 296 298 298 299 298 297 297 297 297 298 298 298 298 298 298 298 300 301 301 300 298 297 299 296 296 296 295 293 294 295 294 294
289 289 288 288 288 288 289 290 292 293 296 296 295 294 292 292 293 295 296 296 296 295 296 297 298 297 298 298 298 298 298 299 298 298 298 298 298 299 301 302 302 299 298 296 296 296 296 293 293 293 293 294 296 294
289 289 288 288 288 288 289 290 291 293 294 295 294 293 292 293 294 295 294 294 296 296 296 297 298 300 298 299 299 298 298 298 298 298 298 299 299 300 301 301 300 298 297 296 296 296 294 294 293 293 292 292 293 292
289 289 289 288 288 288 291 291 291 295 295 295 293 292 292 292 293 294 295 293 294 295 296 297 298 301 299 299 299 298 297 299 298 300 299 299 300 301 302 299 297 295 295 294 293 295 293 292 291 291 291 289 290 289
289 289 289 288 288 288 289 290 292 294 294 293 293 293 292 292 294 294 293 295 294 295 295 296 298 300 299 299 299 300 299 300 301 300 299 301 301 298 296 294 294 293 292 291 291 290 289 288 288 288 289 287 286 286
289 289 289 288 288 288 289 290 294 293 292 292 292 294 294 293 293 295 295 295 295 296 296 296 296 300 300 301 301 300 301 301 302 303 302 302 302 295 293 292 291 290 290 288 288 287 285 284 284 285 285 284 283 282
289 289 288 288 288 289 289 292 293 292 292 293 295 294 294 294 294 296 296 296 297 296 298 298 298 298 299 300 301 301 301 301 301 303 303 302 295 292 291 290 289 288 287 286 285 284 283 281 281 281 281 280 281 280
289 288 288 288 288 289 291 293 292 293 294 294 294 293 294 295 296 296 296 297 298 299 300 299 300 299 300 300 301 302 301 302 303 304 302 296 292 291 290 288 287 285 284 283 282 281 280 279 279 279 278 279 279 279
287 287 288 289 291 291 293 293 293 293 294 294 295 295 296 296 297 298 300 300 298 300 301 299 299 300 300 301 301 301 302 302 304 304 299 294 291 289 288 287 285 282 281 281 280 280 279 278 278 278 277 277 277 277
288 289 290 292 292 293 293 293 293 294 294 295 295 297 298 298 298 298 299 299 300 300 299 300 299 299 300 301 301 302 303 304 301 297 294 291 288 287 286 285 283 281 281 280 279 279 278 278 277 277 277 277 277 277
289 290 293 294 293 293 293 292 293 293 293 294 293 295 297 297 297 297 297 297 297 299 300 300 301 300 301 301 302 302 302 301 297 293 290 288 287 285 284 283 282 281 280 280 279 278 277 277 277 277 277 276 277 277
292 294 294 293 293 292 292 292 292 293 293 293 294 292 293 295 295 293 294 293 295 297 301 300 300 301 302 302 301 297 297 294 291 289 288 286 285 283 283 282 281 281 280 279 278 278 278 278 278 278 277 277 277 277
292 292 292 292 292 292 292 293 293 293 293 292 294 291 290 290 292 291 291 291 293 297 298 300 299 300 301 301 298 293 291 290 288 287 285 284 283 283 283 281 281 280 279 279 279 279 279 279 280 279 279 278 278 278
292 292 292 292 292 292 292 293 293 293 292 290 289 289 289 288 288 288 289 290 291 293 294 296 297 299 295 292 292 290 289 288 287 285 283 282 281 281 281 281 280 279 279 279 279 279 278 278 277 278 278 278 278 277
291 292 292 292 293 293 292 292 292 292 293 290 289 290 289 289 287 288 289 290 291 293 293 293 292 289 289 288 288 288 288 287 286 285 284 282 282 282 281 281 280 280 280 280 279 279 279 279 278 277 276 276 277 276
292 291 292 293 292 292 292 292 291 291 290 291 289 290 289 289 290 290 289 289 291 290 290 287 285 284 284 285 285 285 286 287 285 287 285 283 282 282 281 281 280 280 280 280 280 279 278 278 277 276 276 276 275 275
291 291 292 292 292 291 291 292 292 291 291 290 290 291 291 291 290 289 288 290 288 286 287 285 284 283 282 282 283 283 283 283 283 283 283 283 283 282 281 280 281 280 279 279 279 278 278 277 276 276 276 275 275 275
290 292 292 293 292 291 290 291 292 291 292 291 290 291 291 290 289 287 289 287 285 284 284 283 283 282 280 280 281 281 282 282 282 282 281 281 280 280 280 279 279 279 279 278 278 277 277 276 276 276 275 275 275 275
292 293 293 293 293 293 291 292 292 291 291 292 292 291 291 290 287 289 290 288 284 283 282 281 281 281 281 281 282 281 281 281 280 281 281 281 280 279 279 278 278 277 277 277 277 276 276 276 275 276 275 275 275 275
293 292 292 292 292 292 293 292 292 292 292 292 291 291 290 287 290 290 290 286 283 283 282 282 283 283 283 282 280 279 280 281 281 279 279 279 279 279 278 278 277 276 276 276 277 276 276 275 275 275 274 275 274 274
295 289 291 293 292 293 293 293 292 292 292 292 292 290 288 290 290 291 290 285 284 283 282 283 283 283 282 282 281 280 279 279 280 279 277 277 278 278 278 279 278 275 275 274 275 275 275 276 275 274 274 274 274 273
293 291 288 287 291 291 292 291 292 292 292 292 291 289 289 290 291 288 286 285 283 282 282 283 283 283 282 280 279 278 277 278 279 278 276 275 275 275 276 276 276 276 274 273 273 274 274 274 274 275 275 274 274 273
289 289 289 288 289 289 291 292 291 292 292 291 290 290 290 290 289 285 284 283 282 282 281 281 281 281 280 278 277 276 276 277 277 276 275 275 275 274 274 273 273 273 272 272 272 272 272 273 273 274 274 274 273 272
288 286 286 283 286 287 288 290 291 287 284 287 291 289 285 281 281 282 282 281 280 280 279 278 278 279 277 276 276 276 275 276 276 276 276 277 275 274 274 272 272 272 272 271 271 271 271 272 272 272 272 272 272 271
285 285 286 283 284 287 285 283 284 281 281 281 281 279 278 277 279 279 279 279 279 279 278 277 276 276 276 276 276 276 276 276 276 276 276 276 276 275 273 272 271 271 271 271 270 271 271 271 271 271 271 271 271 271
284 285 285 285 284 283 280 278 278 278 279 280 280 282 280 276 276 278 278 278 279 279 278 276 276 276 276 276 275 275 275 275 275 274 273 273 273 272 272 272 271 271 270 270 270 270 270 271 271 271 270 270 269 269
284 285 283 283 282 278 278 280 280 281 280 280 280 278 277 278 278 276 277 279 278 277 277 277 277 276 276 276 276 276 276 275 274 273 273 273 273 272 272 271 271 271 271 270 270 270 270 270 270 270 270 269 269 268
282 282 283 282 280 279 280 281 281 282 282 282 281 279 280 282 281 278 277 277 277 277 277 276 276 276 277 276 276 275 274 274 273 273 273 272 272 272 272 271 271 271 270 270 270 270 269 269 269 269 269 268 269 268

GFSWCAN_850_thetae_123.txt.gz
Theta_e
292 295 296 296 297 298 298 298 298 298 297 296 297 297 297 295 294 294 295 295 296 298 297 297 299 298 298 298 296 299 298 299 298 297 298 297 300 302 302 303 304 303 303 302 305 306 302 298 300 301 299 299 299 297
290 291 293 295 296 296 298 298 298 298 298 296 296 297 297 296 295 294 294 295 295 297 297 298 297 298 298 298 297 298 299 299 299 297 300 299 299 297 300 299 301 304 302 302 302 303 300 297 297 296 296 296 297 298
289 289 291 293 295 296 296 297 298 298 298 297 297 297 297 295 294 294 294 296 296 296 295 295 295 295 296 297 296 297 298 299 299 300 299 296 297 296 297 298 299 302 302 300 301 300 299 296 296 295 295 295 295 297
289 289 290 292 293 294 295 297 296 298 298 298 297 297 295 294 293 293 294 295 296 296 295 297 298 297 297 296 296 296 297 297 297 298 299 294 296 299 296 298 295 299 299 298 300 299 298 298 294 294 295 294 294 295
289 288 289 291 292 293 293 294 296 297 298 297 297 297 294 293 293 293 293 295 296 296 296 296 295 297 297 297 297 296 296 296 297 298 294 294 298 297 298 297 293 301 295 294 293 297 297 297 295 293 294 295 294 294
289 289 288 290 291 291 292 293 294 295 297 297 296 297 294 293 293 292 293 294 295 296 296 293 297 297 298 297 296 297 297 297 297 298 298 298 298 297 294 298 300 301 299 298 298 296 296 296 294 293 293 294 294 293
288 289 288 289 289 289 291 292 294 294 296 297 297 296 293 292 292 294 295 296 295 295 295 294 296 297 298 298 297 297 297 298 298 298 297 297 297 298 295 298 300 300 298 297 297 296 295 294 293 293 292 293 293 292
289 288 288 288 288 288 289 291 293 294 294 296 296 295 293 292 292 295 294 296 295 295 296 291 294 298 298 299 298 298 298 298 298 298 298 298 298 298 297 300 300 298 297 296 295 295 293 293 292 291 290 290 290 289
289 289 288 288 288 288 288 289 292 294 294 296 295 294 292 293 293 295 293 295 296 295 296 295 292 294 299 299 298 297 297 297 297 296 297 297 297 298 300 298 295 295 294 292 293 293 291 290 289 289 288 288 287 286
289 289 289 288 288 288 289 290 291 294 294 294 293 292 293 293 294 294 294 294 293 294 294 294 296 296 298 299 297 298 298 295 294 298 299 296 297 295 294 293 293 292 291 290 290 288 287 287 286 287 285 285 284 284
289 289 289 288 288 288 290 291 291 294 294 293 293 294 292 293 294 294 294 293 294 294 295 295 295 296 299 296 294 299 294 295 299 299 300 301 299 294 292 291 290 289 288 287 286 285 285 284 284 284 283 283 282 282
289 289 289 289 288 288 289 290 292 294 293 293 294 293 293 293 294 292 291 293 294 294 296 296 296 296 297 299 299 299 298 297 298 301 302 298 294 291 290 288 287 287 285 285 284 283 282 282 281 281 281 280 280 281
289 289 289 288 288 288 289 290 292 293 295 294 293 294 294 294 289 290 291 294 291 297 298 298 295 298 299 300 299 295 298 295 300 297 297 293 291 290 288 287 286 285 284 283 282 281 280 280 280 280 279 279 279 279
289 289 289 288 288 288 290 291 293 294 294 293 294 292 291 289 291 293 293 294 297 298 299 299 298 300 300 297 297 298 295 296 300 302 295 292 289 288 287 286 285 283 282 281 280 279 279 279 279 279 279 279 278 278
289 288 288 288 289 289 293 293 294 294 294 295 295 289 291 297 297 298 298 298 298 299 299 298 297 299 296 295 298 298 295 299 299 295 291 289 288 287 285 284 283 281 280 280 279 279 278 278 277 278 278 278 278 278
288 288 289 290 290 292 293 294 294 293 293 294 293 292 294 297 296 297 298 297 298 299 299 299 297 298 295 296 298 299 299 297 294 290 288 287 286 285 284 283 282 281 280 279 279 278 278 278 278 278 277 277 277 277
289 291 290 291 292 293 294 293 292 293 293 293 293 292 292 294 294 293 295 295 296 299 296 299 298 298 296 298 298 294 294 291 289 288 287 286 285 283 282 282 281 281 280 279 279 279 279 279 278 278 278 278 277 277
292 292 292 293 293 293 293 293 293 293 293 291 293 291 290 291 292 292 292 294 295 297 298 298 298 298 296 296 295 291 290 288 287 286 285 284 283 283 282 281 281 280 279 280 280 279 278 279 279 279 278 279 277 278
293 293 293 293 293 292 292 292 293 292 291 290 289 289 289 289 289 290 290 292 293 294 295 296 296 295 290 292 291 290 288 287 285 284 283 283 282 282 281 281 280 280 279 279 279 279 278 278 277 277 277 278 277 277
292 292 293 293 293 293 292 292 293 292 292 290 289 290 289 289 289 289 290 291 292 293 293 291 287 289 289 288 290 289 289 287 285 283 283 282 282 281 281 281 280 280 280 280 279 279 279 278 277 276 276 276 276 276
292 292 293 292 292 292 292 292 292 291 290 291 289 289 289 289 290 290 289 290 291 290 288 286 285 286 286 286 287 287 287 287 285 285 284 282 282 281 280 280 280 280 279 279 280 278 278 277 276 276 276 275 275 275
292 293 293 293 292 292 291 292 292 291 291 290 290 291 290 291 290 289 289 289 287 286 287 285 284 284 284 285 285 285 285 285 285 284 283 282 282 281 281 281 280 279 279 278 278 278 277 277 276 276 275 275 275 275
292 292 292 293 292 291 291 292 292 291 290 291 291 291 290 290 289 288 288 286 285 285 285 284 283 283 283 283 283 283 283 283 282 282 282 281 281 280 279 279 279 279 278 278 277 277 276 276 275 275 275 275 276 276
291 292 293 293 293 291 291 292 293 292 291 290 292 292 291 290 287 288 289 286 284 283 283 283 283 281 281 281 281 281 281 281 281 280 280 280 279 279 279 278 278 277 277 277 277 277 276 276 275 275 275 275 275 274
293 291 292 291 292 292 292 292 292 292 292 291 291 291 286 287 285 286 287 284 283 282 282 281 281 281 282 281 281 280 281 280 280 280 280 279 279 278 278 278 277 277 277 277 277 276 277 276 275 275 274 274 274 274
292 291 289 293 291 293 293 293 292 292 292 291 291 289 288 285 288 288 287 284 283 282 282 282 282 283 282 282 280 280 280 280 279 279 278 279 279 279 279 278 277 277 276 276 276 275 275 275 275 275 274 275 274 273
290 289 289 289 291 292 291 292 292 291 291 291 288 284 287 286 284 286 285 284 284 283 282 283 284 283 282 281 280 279 279 279 279 279 278 278 277 278 278 278 277 276 275 274 274 274 274 274 274 274 274 275 274 273
290 290 283 288 290 290 287 291 286 287 289 292 290 287 287 283 284 285 284 284 283 282 282 283 283 283 282 281 281 280 279 278 279 278 277 276 276 275 274 274 274 274 273 273 272 272 272 273 273 273 273 273 273 272
287 287 288 284 287 288 289 286 289 287 287 288 288 285 284 282 282 283 283 283 282 282 282 282 281 281 281 280 279 278 278 278 277 276 276 276 276 276 275 273 273 273 272 272 272 271 271 271 272 272 272 272 271 271
287 287 286 283 279 281 285 284 283 283 283 284 283 281 280 280 281 282 282 282 282 281 281 281 280 280 280 279 278 277 276 276 277 276 275 276 276 276 275 273 273 272 272 272 271 271 271 271 271 271 271 271 271 270
284 285 286 285 283 282 281 281 281 281 280 281 281 282 280 279 279 280 280 280 280 280 279 279 278 278 278 277 277 277 277 276 276 276 276 275 274 274 273 273 272 272 272 272 271 271 271 271 271 271 270 270 270 269
284 286 283 282 281 279 279 279 279 280 280 280 281 279 278 277 277 278 279 279 279 279 279 278 277 277 277 277 277 276 276 276 275 275 274 274 273 273 273 273 272 272 272 271 271 271 270 270 270 270 270 270 269 269
283 283 284 282 280 279 279 280 282 282 281 281 281 280 279 279 280 279 278 279 279 279 279 278 277 277 277 277 277 277 276 275 274 274 274 273 273 273 273 272 272 272 271 271 271 270 270 270 270 270 269 269 269 269